QFA104 PHNL-YSSY

Flight info

Callsign QFA104
Flight time 10h 18m
Altitude 34000
Route OPIHI3 CARRP DCT 1809N16025W 1448N16320W 1011N16709W 0655N16955W 0333N17247W 0018N17548W 0253S17837W 0440S18000W 0715S17759E 1241S17403E 1748S17035E 1946S16924E 2227S16752E 2737S16438E 2922S16300E 3008S16215E 3240S15824E DCT SOTKI G595 ATNAT DCT RIKNI N774 MARLN
Aircraft B744/H-SDE3FGHIM1M2RWXY/LB1

Departure

Time 2026-05-04 23:45
Airport Daniel K. Inouye International Airport (PHNL)

Arrival

Time 2026-05-05 10:03
Airport Sydney Kingsford Smith International Airport (YSSY)
Time Latitude Longitude Altitude Speed Heading
2026-05-04 23:03 21.32885 -157.91494 25 ft 0 kts
2026-05-04 23:25 21.32877 -157.91494 26 ft 3 kts
2026-05-04 23:26 21.32856 -157.91494 26 ft 3 kts
2026-05-04 23:26 21.32836 -157.91494 26 ft 3 kts
2026-05-04 23:26 21.32816 -157.91495 26 ft 3 kts
2026-05-04 23:26 21.32795 -157.91495 26 ft 3 kts
2026-05-04 23:27 21.32784 -157.91495 26 ft 2 kts 359°
2026-05-04 23:27 21.32772 -157.91495 26 ft 3 kts 324°
2026-05-04 23:27 21.32767 -157.91493 26 ft 3 kts 279°
2026-05-04 23:27 21.32766 -157.91472 26 ft 3 kts 268°
2026-05-04 23:28 21.32766 -157.91451 26 ft 2 kts 269°
2026-05-04 23:28 21.32767 -157.91443 26 ft 0 kts 270°
2026-05-04 23:32 21.32767 -157.91489 26 ft 8 kts 270°
2026-05-04 23:33 21.32768 -157.91544 26 ft 7 kts 270°
2026-05-04 23:33 21.32767 -157.91614 26 ft 11 kts 271°
2026-05-04 23:33 21.32768 -157.91668 26 ft 11 kts 271°
2026-05-04 23:33 21.32771 -157.91776 26 ft 15 kts 271°
2026-05-04 23:34 21.32773 -157.91886 26 ft 14 kts 271°
2026-05-04 23:34 21.32776 -157.91990 26 ft 13 kts 271°
2026-05-04 23:34 21.32778 -157.92090 26 ft 16 kts 271°
2026-05-04 23:34 21.32780 -157.92206 26 ft 15 kts 271°
2026-05-04 23:35 21.32783 -157.92316 26 ft 14 kts 271°
2026-05-04 23:35 21.32786 -157.92418 26 ft 13 kts 271°
2026-05-04 23:35 21.32788 -157.92515 26 ft 13 kts 271°
2026-05-04 23:35 21.32790 -157.92608 26 ft 12 kts 271°
2026-05-04 23:36 21.32792 -157.92698 26 ft 12 kts 270°
2026-05-04 23:36 21.32781 -157.92782 26 ft 11 kts 234°
2026-05-04 23:36 21.32730 -157.92842 26 ft 11 kts 254°
2026-05-04 23:36 21.32734 -157.92929 26 ft 17 kts 276°
2026-05-04 23:37 21.32742 -157.93097 26 ft 23 kts 269°
2026-05-04 23:37 21.32740 -157.93265 26 ft 22 kts 270°
2026-05-04 23:37 21.32741 -157.93426 26 ft 21 kts 270°
2026-05-04 23:37 21.32743 -157.93580 26 ft 20 kts 271°
2026-05-04 23:38 21.32747 -157.93726 26 ft 19 kts 271°
2026-05-04 23:38 21.32743 -157.93866 26 ft 17 kts 268°
2026-05-04 23:38 21.32740 -157.93980 26 ft 9 kts 268°
2026-05-04 23:38 21.32725 -157.94037 26 ft 8 kts 226°
2026-05-04 23:39 21.32681 -157.94070 26 ft 8 kts 212°
2026-05-04 23:39 21.32637 -157.94100 26 ft 7 kts 212°
2026-05-04 23:39 21.32595 -157.94128 26 ft 7 kts 212°
2026-05-04 23:39 21.32533 -157.94171 26 ft 19 kts 212°
2026-05-04 23:40 21.32410 -157.94251 26 ft 20 kts 210°
2026-05-04 23:40 21.32291 -157.94326 26 ft 19 kts 210°
2026-05-04 23:40 21.32179 -157.94398 26 ft 18 kts 211°
2026-05-04 23:40 21.32071 -157.94466 26 ft 17 kts 211°
2026-05-04 23:41 21.31969 -157.94531 26 ft 17 kts 211°
2026-05-04 23:41 21.31873 -157.94592 26 ft 16 kts 211°
2026-05-04 23:41 21.31780 -157.94650 26 ft 18 kts 202°
2026-05-04 23:41 21.31628 -157.94655 26 ft 22 kts 174°
2026-05-04 23:42 21.31475 -157.94638 26 ft 21 kts 174°
2026-05-04 23:42 21.31329 -157.94620 26 ft 21 kts 173°
2026-05-04 23:42 21.31192 -157.94602 26 ft 20 kts 173°
2026-05-04 23:42 21.31058 -157.94585 26 ft 19 kts 173°
2026-05-04 23:43 21.30923 -157.94572 26 ft 20 kts 178°
2026-05-04 23:43 21.30790 -157.94570 26 ft 19 kts 179°
2026-05-04 23:43 21.30689 -157.94570 26 ft 6 kts 178°
2026-05-04 23:43 21.30677 -157.94557 26 ft 1 kts 90°
2026-05-04 23:44 21.30679 -157.94491 26 ft 28 kts 88°
2026-05-04 23:44 21.30689 -157.94000 26 ft 101 kts 90°
2026-05-04 23:44 21.30691 -157.92962 28 ft 175 kts 87°
2026-05-04 23:44 21.30681 -157.91506 426 ft 203 kts 93°
2026-05-04 23:45 21.30196 -157.90085 1409 ft 207 kts 121°
2026-05-04 23:45 21.29072 -157.89130 2372 ft 207 kts 152°
2026-05-04 23:45 21.27682 -157.88717 3114 ft 210 kts 162°
2026-05-04 23:45 21.26230 -157.88393 3582 ft 218 kts 164°
2026-05-04 23:46 21.24683 -157.88047 3769 ft 236 kts 165°
2026-05-04 23:46 21.23049 -157.87653 3981 ft 251 kts 165°
2026-05-04 23:46 21.21264 -157.87222 4134 ft 274 kts 165°
2026-05-04 23:46 21.19347 -157.86749 4597 ft 285 kts 165°
2026-05-04 23:47 21.17386 -157.86280 5329 ft 291 kts 171°
2026-05-04 23:47 21.15363 -157.86450 6078 ft 296 kts 195°
2026-05-04 23:47 21.13565 -157.87476 6767 ft 302 kts 218°
2026-05-04 23:47 21.12224 -157.89211 7553 ft 304 kts 237°
2026-05-04 23:48 21.11328 -157.91280 8247 ft 309 kts 250°
2026-05-04 23:48 21.10789 -157.93507 8943 ft 313 kts 255°
2026-05-04 23:48 21.10319 -157.95810 9660 ft 316 kts 257°
2026-05-04 23:48 21.09914 -157.98137 10328 ft 322 kts 259°
2026-05-04 23:49 21.09549 -158.00565 10584 ft 342 kts 261°
2026-05-04 23:49 21.09173 -158.03176 10741 ft 364 kts 259°
2026-05-04 23:49 21.08443 -158.05860 10891 ft 386 kts 248°
2026-05-04 23:49 21.07305 -158.08500 11301 ft 399 kts 244°
2026-05-04 23:50 21.05808 -158.11020 11855 ft 406 kts 229°
2026-05-04 23:50 21.03779 -158.13149 12504 ft 411 kts 221°
2026-05-04 23:50 21.01533 -158.15073 13117 ft 417 kts 217°
2026-05-04 23:50 20.99158 -158.16883 13745 ft 421 kts 214°
2026-05-04 23:51 20.96715 -158.18648 14394 ft 425 kts 214°
2026-05-04 23:51 20.94244 -158.20445 14992 ft 430 kts 215°
2026-05-04 23:51 20.91774 -158.22270 15600 ft 434 kts 215°
2026-05-04 23:51 20.89288 -158.24122 16168 ft 439 kts 215°
2026-05-04 23:52 20.86778 -158.26013 16736 ft 442 kts 216°
2026-05-04 23:52 20.84253 -158.27914 17312 ft 446 kts 216°
2026-05-04 23:52 20.81707 -158.29825 17853 ft 450 kts 216°
2026-05-04 23:52 20.79132 -158.31758 18384 ft 454 kts 216°
2026-05-04 23:53 20.76566 -158.33681 18909 ft 457 kts 216°
2026-05-04 23:53 20.73942 -158.35646 19403 ft 461 kts 216°
2026-05-04 23:53 20.71305 -158.37620 19912 ft 464 kts 216°
2026-05-04 23:53 20.68657 -158.39603 20386 ft 468 kts 216°
2026-05-04 23:54 20.66884 -158.40929 20713 ft 470 kts 216°
2026-05-04 23:54 20.63284 -158.43622 21352 ft 474 kts 216°
2026-05-04 23:54 20.60564 -158.45654 21742 ft 479 kts 216°
2026-05-04 23:54 20.58752 -158.46999 22074 ft 480 kts 216°
2026-05-04 23:55 20.56002 -158.49040 22553 ft 482 kts 216°
2026-05-04 23:55 20.52344 -158.51755 23132 ft 486 kts 216°
2026-05-04 23:55 20.46741 -158.55912 23972 ft 492 kts 216°
2026-05-04 23:56 20.43914 -158.58008 24386 ft 495 kts 216°
2026-05-04 23:56 20.42040 -158.59397 24655 ft 497 kts 216°
2026-05-04 23:56 20.39274 -158.61447 25088 ft 499 kts 216°
2026-05-04 23:56 20.36328 -158.63630 25539 ft 501 kts 216°
2026-05-04 23:57 20.33467 -158.65751 25947 ft 503 kts 217°
2026-05-04 23:57 20.30596 -158.67888 26333 ft 505 kts 217°
2026-05-04 23:57 20.27702 -158.70037 26697 ft 507 kts 217°
2026-05-04 23:57 20.24799 -158.72189 27084 ft 507 kts 217°
2026-05-04 23:58 20.21909 -158.74328 27649 ft 504 kts 217°
2026-05-04 23:58 20.19081 -158.76426 28239 ft 500 kts 217°
2026-05-04 23:58 20.16191 -158.78569 28736 ft 499 kts 217°
2026-05-04 23:58 20.13339 -158.80678 29206 ft 497 kts 217°
2026-05-04 23:59 20.10535 -158.82748 29702 ft 495 kts 217°
2026-05-04 23:59 20.07713 -158.84828 30260 ft 491 kts 217°
2026-05-04 23:59 20.04914 -158.86892 30774 ft 488 kts 217°
2026-05-04 23:59 20.02120 -158.88952 31140 ft 488 kts 217°
2026-05-05 00:00 19.99330 -158.91008 31528 ft 486 kts 217°
2026-05-05 00:00 19.97459 -158.92385 31897 ft 483 kts 217°
2026-05-05 00:00 19.93828 -158.95060 32499 ft 479 kts 217°
2026-05-05 00:00 19.91073 -158.97086 32810 ft 478 kts 217°
2026-05-05 00:01 19.88342 -158.99089 33175 ft 477 kts 217°
2026-05-05 00:01 19.85621 -159.01085 33533 ft 475 kts 217°
2026-05-05 00:01 19.82900 -159.03081 33887 ft 473 kts 217°
2026-05-05 00:01 19.80196 -159.05064 33993 ft 473 kts 217°
2026-05-05 00:02 19.77515 -159.07029 33999 ft 473 kts 217°
2026-05-05 00:02 19.72104 -159.10992 34067 ft 472 kts 217°
2026-05-05 00:03 19.66853 -159.14836 34140 ft 471 kts 217°
2026-05-05 00:03 19.61449 -159.18807 34140 ft 471 kts 217°
2026-05-05 00:04 19.56058 -159.22758 34149 ft 471 kts 217°
2026-05-05 00:04 19.50668 -159.26701 34150 ft 471 kts 217°
2026-05-05 00:05 19.45275 -159.30642 34149 ft 470 kts 217°
2026-05-05 00:05 19.39882 -159.34579 34146 ft 470 kts 217°
2026-05-05 00:06 19.34504 -159.38502 34137 ft 470 kts 217°
2026-05-05 00:06 19.29161 -159.42408 34137 ft 470 kts 217°
2026-05-05 00:07 19.23767 -159.46335 34136 ft 469 kts 217°
2026-05-05 00:07 19.18383 -159.50249 34135 ft 469 kts 217°
2026-05-05 00:08 19.12997 -159.54162 34135 ft 468 kts 217°
2026-05-05 00:08 19.07667 -159.58056 34133 ft 468 kts 219°
2026-05-05 00:09 19.02618 -159.62409 34134 ft 466 kts 223°
2026-05-05 00:09 18.97748 -159.66916 34134 ft 465 kts 223°
2026-05-05 00:10 18.92889 -159.71362 34134 ft 464 kts 223°
2026-05-05 00:10 18.87998 -159.75809 34134 ft 464 kts 223°
2026-05-05 00:11 18.83085 -159.80263 34133 ft 463 kts 223°
2026-05-05 00:11 18.78195 -159.84707 34135 ft 463 kts 223°
2026-05-05 00:12 18.73358 -159.89099 34133 ft 461 kts 224°
2026-05-05 00:12 18.68497 -159.93502 34132 ft 460 kts 224°
2026-05-05 00:13 18.63655 -159.97882 34132 ft 460 kts 224°
2026-05-05 00:13 18.58792 -160.02277 34132 ft 460 kts 224°
2026-05-05 00:14 18.53927 -160.06669 34131 ft 460 kts 224°
2026-05-05 00:14 18.49062 -160.11058 34131 ft 460 kts 224°
2026-05-05 00:15 18.44201 -160.15442 34130 ft 459 kts 224°
2026-05-05 00:15 18.39337 -160.19824 34130 ft 459 kts 224°
2026-05-05 00:16 18.34486 -160.24204 34129 ft 459 kts 224°
2026-05-05 00:16 18.29649 -160.28553 34129 ft 459 kts 224°
2026-05-05 00:17 18.24790 -160.32915 34129 ft 459 kts 224°
2026-05-05 00:17 18.19923 -160.37283 34128 ft 459 kts 224°
2026-05-05 00:18 18.15051 -160.41652 34128 ft 460 kts 224°
2026-05-05 00:18 18.10170 -160.46001 34128 ft 460 kts 224°
2026-05-05 00:19 18.05306 -160.50323 34127 ft 460 kts 224°
2026-05-05 00:19 18.00424 -160.54659 34127 ft 460 kts 224°
2026-05-05 00:20 17.95543 -160.58992 34126 ft 458 kts 224°
2026-05-05 00:20 17.90679 -160.63306 34148 ft 457 kts 224°
2026-05-05 00:21 17.85827 -160.67624 34151 ft 458 kts 224°
2026-05-05 00:21 17.80961 -160.71954 34150 ft 458 kts 224°
2026-05-05 00:22 17.76133 -160.76240 34150 ft 458 kts 224°
2026-05-05 00:22 17.71258 -160.80561 34151 ft 458 kts 224°
2026-05-05 00:23 17.66376 -160.84885 34149 ft 458 kts 224°
2026-05-05 00:23 17.61539 -160.89165 34148 ft 458 kts 224°
2026-05-05 00:24 17.56657 -160.93481 34147 ft 458 kts 224°
2026-05-05 00:24 17.51777 -160.97793 34146 ft 458 kts 223°
2026-05-05 00:25 17.46910 -161.02089 34146 ft 458 kts 224°
2026-05-05 00:25 17.42033 -161.06392 34145 ft 458 kts 224°
2026-05-05 00:26 17.37195 -161.10657 34144 ft 457 kts 224°
2026-05-05 00:26 17.32318 -161.14953 34145 ft 457 kts 224°
2026-05-05 00:27 17.27441 -161.19246 34144 ft 457 kts 224°
2026-05-05 00:27 17.22569 -161.23532 34144 ft 458 kts 223°
2026-05-05 00:28 17.17678 -161.27832 34143 ft 458 kts 223°
2026-05-05 00:28 17.12826 -161.32094 34142 ft 458 kts 223°
2026-05-05 00:29 17.07947 -161.36377 34141 ft 458 kts 224°
2026-05-05 00:29 17.03065 -161.40659 34140 ft 457 kts 224°
2026-05-05 00:30 16.98186 -161.44936 34140 ft 458 kts 224°
2026-05-05 00:30 16.93324 -161.49194 34140 ft 458 kts 224°
2026-05-05 00:31 16.88448 -161.53463 34138 ft 457 kts 224°
2026-05-05 00:31 16.83571 -161.57729 34138 ft 458 kts 224°
2026-05-05 00:32 16.78684 -161.62001 34137 ft 458 kts 224°
2026-05-05 00:32 16.73793 -161.66273 34136 ft 457 kts 224°
2026-05-05 00:33 16.68934 -161.70515 34135 ft 457 kts 224°
2026-05-05 00:33 16.64059 -161.74767 34134 ft 457 kts 224°
2026-05-05 00:34 16.59171 -161.79028 34134 ft 457 kts 224°
2026-05-05 00:34 16.54315 -161.83258 34132 ft 457 kts 224°
2026-05-05 00:35 16.49430 -161.87511 34132 ft 457 kts 224°
2026-05-05 00:35 16.44542 -161.91763 34131 ft 457 kts 224°
2026-05-05 00:36 16.39651 -161.96015 34131 ft 457 kts 224°
2026-05-05 00:36 16.34793 -162.00235 34130 ft 458 kts 224°
2026-05-05 00:37 16.29894 -162.04488 34129 ft 457 kts 224°
2026-05-05 00:37 16.25006 -162.08729 34128 ft 457 kts 224°
2026-05-05 00:38 16.20117 -162.12968 34127 ft 457 kts 224°
2026-05-05 00:38 16.15250 -162.17185 34127 ft 457 kts 224°
2026-05-05 00:39 16.10352 -162.21426 34125 ft 457 kts 224°
2026-05-05 00:39 16.05452 -162.25665 34125 ft 457 kts 224°
2026-05-05 00:40 16.00585 -162.29874 34124 ft 457 kts 224°
2026-05-05 00:40 15.95689 -162.34105 34123 ft 457 kts 224°
2026-05-05 00:41 15.90802 -162.38325 34123 ft 457 kts 224°
2026-05-05 00:41 15.85907 -162.42549 34121 ft 456 kts 224°
2026-05-05 00:42 15.81846 -162.46052 34121 ft 456 kts 224°
2026-05-05 00:42 15.76169 -162.50945 34119 ft 456 kts 224°
2026-05-05 00:43 15.72098 -162.54453 34119 ft 456 kts 224°
2026-05-05 00:43 15.67211 -162.58659 34119 ft 456 kts 224°
2026-05-05 00:44 15.62333 -162.62856 34117 ft 456 kts 224°
2026-05-05 00:44 15.57426 -162.67075 34116 ft 456 kts 224°
2026-05-05 00:45 15.52582 -162.71237 34115 ft 455 kts 223°
2026-05-05 00:45 15.47703 -162.75427 34114 ft 455 kts 223°
2026-05-05 00:46 15.42822 -162.79615 34113 ft 455 kts 223°
2026-05-05 00:46 15.37946 -162.83797 34110 ft 454 kts 223°
2026-05-05 00:47 15.33072 -162.87974 34111 ft 454 kts 223°
2026-05-05 00:47 15.28228 -162.92124 34111 ft 454 kts 223°
2026-05-05 00:48 15.23335 -162.96312 34110 ft 455 kts 223°
2026-05-05 00:48 15.18495 -163.00452 34108 ft 454 kts 223°
2026-05-05 00:49 15.13620 -163.04620 34106 ft 454 kts 223°
2026-05-05 00:49 15.08746 -163.08786 34106 ft 454 kts 223°
2026-05-05 00:50 15.03876 -163.12949 34106 ft 454 kts 223°
2026-05-05 00:50 14.99011 -163.17108 34105 ft 454 kts 223°
2026-05-05 00:51 14.94159 -163.21243 34104 ft 454 kts 223°
2026-05-05 00:51 14.89284 -163.25396 34103 ft 454 kts 223°
2026-05-05 00:52 14.84404 -163.29550 34102 ft 454 kts 223°
2026-05-05 00:52 14.79524 -163.33704 34103 ft 455 kts 222°
2026-05-05 00:53 14.74622 -163.37851 34100 ft 455 kts 222°
2026-05-05 00:53 14.69723 -163.41993 34098 ft 454 kts 222°
2026-05-05 00:54 14.64859 -163.46104 34098 ft 455 kts 222°
2026-05-05 00:54 14.59955 -163.50246 34097 ft 455 kts 222°
2026-05-05 00:55 14.55053 -163.54384 34096 ft 455 kts 222°
2026-05-05 00:55 14.50151 -163.58533 34093 ft 456 kts 222°
2026-05-05 00:56 14.45240 -163.62689 34094 ft 455 kts 222°
2026-05-05 00:56 14.40336 -163.66832 34093 ft 456 kts 221°
2026-05-05 00:57 14.35467 -163.70941 34092 ft 456 kts 221°
2026-05-05 00:57 14.30548 -163.75088 34091 ft 456 kts 221°
2026-05-05 00:58 14.25634 -163.79229 34090 ft 456 kts 221°
2026-05-05 00:58 14.20723 -163.83363 34089 ft 456 kts 221°
2026-05-05 00:59 14.15820 -163.87489 34088 ft 457 kts 221°
2026-05-05 00:59 14.10894 -163.91632 34087 ft 456 kts 221°
2026-05-05 01:00 14.05971 -163.95770 34086 ft 456 kts 221°
2026-05-05 01:00 14.01044 -163.99910 34085 ft 456 kts 221°
2026-05-05 01:01 13.96117 -164.04045 34085 ft 456 kts 221°
2026-05-05 01:01 13.91223 -164.08152 34082 ft 456 kts 221°
2026-05-05 01:02 13.86286 -164.12293 34075 ft 456 kts 221°
2026-05-05 01:02 13.81355 -164.16426 34074 ft 456 kts 221°
2026-05-05 01:03 13.76460 -164.20526 34074 ft 456 kts 221°
2026-05-05 01:03 13.71533 -164.24651 34072 ft 456 kts 221°
2026-05-05 01:04 13.66601 -164.28778 34072 ft 457 kts 221°
2026-05-05 01:04 13.59219 -164.34951 34070 ft 457 kts 221°
2026-05-05 01:05 13.54274 -164.39083 34069 ft 456 kts 221°
2026-05-05 01:05 13.49373 -164.43176 34069 ft 457 kts 221°
2026-05-05 01:06 13.44425 -164.47306 34067 ft 457 kts 221°
2026-05-05 01:06 13.39488 -164.51425 34067 ft 457 kts 221°
2026-05-05 01:07 13.34550 -164.55542 34066 ft 457 kts 221°
2026-05-05 01:07 13.29638 -164.59635 34065 ft 458 kts 221°
2026-05-05 01:08 13.24685 -164.63760 34064 ft 458 kts 221°
2026-05-05 01:08 13.19739 -164.67877 34062 ft 457 kts 221°
2026-05-05 01:09 13.14790 -164.71995 34062 ft 458 kts 221°
2026-05-05 01:09 13.09832 -164.76117 34061 ft 458 kts 220°
2026-05-05 01:10 13.04907 -164.80211 34061 ft 458 kts 220°
2026-05-05 01:10 12.99954 -164.84324 34059 ft 458 kts 220°
2026-05-05 01:11 12.94989 -164.88446 34058 ft 459 kts 220°
2026-05-05 01:11 12.90027 -164.92563 34057 ft 459 kts 220°
2026-05-05 01:12 12.85054 -164.96687 34056 ft 458 kts 220°
2026-05-05 01:12 12.80123 -165.00775 34055 ft 459 kts 220°
2026-05-05 01:13 12.75150 -165.04895 34054 ft 460 kts 220°
2026-05-05 01:13 12.70175 -165.09014 34054 ft 460 kts 220°
2026-05-05 01:14 12.65194 -165.13136 34053 ft 459 kts 220°
2026-05-05 01:14 12.60252 -165.17224 34052 ft 460 kts 220°
2026-05-05 01:15 12.55257 -165.21354 34051 ft 460 kts 220°
2026-05-05 01:15 12.50298 -165.25451 34050 ft 460 kts 220°
2026-05-05 01:16 12.45306 -165.29575 34049 ft 460 kts 220°
2026-05-05 01:16 12.40319 -165.33691 34048 ft 461 kts 220°
2026-05-05 01:17 12.35326 -165.37811 34047 ft 462 kts 220°
2026-05-05 01:17 12.30317 -165.41941 34047 ft 461 kts 220°
2026-05-05 01:18 12.25316 -165.46063 34045 ft 461 kts 220°
2026-05-05 01:18 12.20339 -165.50164 34045 ft 462 kts 220°
2026-05-05 01:19 12.15319 -165.54296 34044 ft 462 kts 220°
2026-05-05 01:19 12.10309 -165.58420 34043 ft 462 kts 220°
2026-05-05 01:20 12.05292 -165.62546 34042 ft 462 kts 220°
2026-05-05 01:20 12.00315 -165.66639 34040 ft 463 kts 220°
2026-05-05 01:21 11.95286 -165.70771 34041 ft 464 kts 220°
2026-05-05 01:21 11.90253 -165.74905 34040 ft 463 kts 220°
2026-05-05 01:22 11.85229 -165.79030 34039 ft 463 kts 220°
2026-05-05 01:22 11.80209 -165.83149 34038 ft 463 kts 220°
2026-05-05 01:23 11.75174 -165.87279 34039 ft 463 kts 220°
2026-05-05 01:23 11.70148 -165.91399 34038 ft 463 kts 220°
2026-05-05 01:24 11.65148 -165.95496 34037 ft 463 kts 220°
2026-05-05 01:24 11.60115 -165.99618 34037 ft 464 kts 220°
2026-05-05 01:25 11.55078 -166.03741 34036 ft 464 kts 220°
2026-05-05 01:25 11.50048 -166.07857 34035 ft 463 kts 220°
2026-05-05 01:26 11.45037 -166.11955 34035 ft 464 kts 220°
2026-05-05 01:26 11.39991 -166.16080 34033 ft 464 kts 220°
2026-05-05 01:27 11.34949 -166.20200 34033 ft 464 kts 220°
2026-05-05 01:27 11.29907 -166.24317 34031 ft 464 kts 220°
2026-05-05 01:28 11.24861 -166.28435 34031 ft 464 kts 220°
2026-05-05 01:28 11.19816 -166.32552 34029 ft 464 kts 220°
2026-05-05 01:29 11.14805 -166.36639 34028 ft 465 kts 220°
2026-05-05 01:29 11.09747 -166.40763 34029 ft 465 kts 220°
2026-05-05 01:30 11.04684 -166.44888 34028 ft 465 kts 220°
2026-05-05 01:30 10.99629 -166.49005 34027 ft 465 kts 220°
2026-05-05 01:31 10.94573 -166.53121 34026 ft 465 kts 220°
2026-05-05 01:31 10.89542 -166.57215 34026 ft 465 kts 220°
2026-05-05 01:32 10.85330 -166.60641 34025 ft 466 kts 220°
2026-05-05 01:32 10.80260 -166.64763 34024 ft 466 kts 220°
2026-05-05 01:33 10.74367 -166.69552 34023 ft 466 kts 220°
2026-05-05 01:33 10.70122 -166.73000 34022 ft 466 kts 220°
2026-05-05 01:34 10.65074 -166.77099 34022 ft 466 kts 220°
2026-05-05 01:34 10.59998 -166.81219 34021 ft 466 kts 220°
2026-05-05 01:35 10.54930 -166.85331 34020 ft 466 kts 220°
2026-05-05 01:35 10.49859 -166.89443 34020 ft 466 kts 220°
2026-05-05 01:36 10.44790 -166.93552 34019 ft 466 kts 220°
2026-05-05 01:36 10.39747 -166.97645 34019 ft 466 kts 220°
2026-05-05 01:37 10.34678 -167.01751 34018 ft 466 kts 220°
2026-05-05 01:37 10.29598 -167.05861 34017 ft 466 kts 220°
2026-05-05 01:38 10.24528 -167.09962 34016 ft 465 kts 220°
2026-05-05 01:38 10.19488 -167.14036 34016 ft 465 kts 220°
2026-05-05 01:39 10.14477 -167.18212 34015 ft 465 kts 221°
2026-05-05 01:39 10.09545 -167.22469 34014 ft 465 kts 221°
2026-05-05 01:40 10.04599 -167.26717 34014 ft 465 kts 221°
2026-05-05 01:40 9.99643 -167.30965 34013 ft 465 kts 221°
2026-05-05 01:41 9.94708 -167.35189 34012 ft 467 kts 221°
2026-05-05 01:41 9.89745 -167.39441 34012 ft 467 kts 221°
2026-05-05 01:42 9.84790 -167.43686 34011 ft 466 kts 221°
2026-05-05 01:42 9.79864 -167.47902 34011 ft 466 kts 221°
2026-05-05 01:43 9.74894 -167.52152 34010 ft 466 kts 221°
2026-05-05 01:43 9.69921 -167.56402 34009 ft 467 kts 221°
2026-05-05 01:44 9.64952 -167.60645 34009 ft 467 kts 221°
2026-05-05 01:44 9.60011 -167.64865 34008 ft 467 kts 221°
2026-05-05 01:45 9.55043 -167.69104 34007 ft 467 kts 221°
2026-05-05 01:45 9.50075 -167.73342 34007 ft 467 kts 221°
2026-05-05 01:46 9.45107 -167.77579 34006 ft 467 kts 221°
2026-05-05 01:46 9.40159 -167.81797 34006 ft 467 kts 221°
2026-05-05 01:47 9.35176 -167.86043 34005 ft 468 kts 221°
2026-05-05 01:47 9.30192 -167.90289 34004 ft 468 kts 221°
2026-05-05 01:48 9.25240 -167.94505 34004 ft 468 kts 221°
2026-05-05 01:48 9.20242 -167.98758 34003 ft 469 kts 221°
2026-05-05 01:49 9.15240 -168.03014 34003 ft 470 kts 221°
2026-05-05 01:49 9.10218 -168.07285 34002 ft 471 kts 221°
2026-05-05 01:50 9.05233 -168.11523 34002 ft 471 kts 221°
2026-05-05 01:50 9.00208 -168.15794 34001 ft 471 kts 221°
2026-05-05 01:51 8.95173 -168.20071 34000 ft 472 kts 221°
2026-05-05 01:51 8.90144 -168.24342 34001 ft 473 kts 221°
2026-05-05 01:52 8.85133 -168.28595 33999 ft 473 kts 221°
2026-05-05 01:52 8.80096 -168.32869 34000 ft 474 kts 221°
2026-05-05 01:53 8.75038 -168.37159 33997 ft 474 kts 221°
2026-05-05 01:53 8.69976 -168.41452 33998 ft 474 kts 221°
2026-05-05 01:54 8.64927 -168.45732 33998 ft 475 kts 221°
2026-05-05 01:54 8.59863 -168.50023 33997 ft 475 kts 221°
2026-05-05 01:55 8.54827 -168.54289 33997 ft 474 kts 221°
2026-05-05 01:55 8.49771 -168.58569 33996 ft 475 kts 221°
2026-05-05 01:56 8.44697 -168.62864 33996 ft 476 kts 221°
2026-05-05 01:56 8.39607 -168.67170 33995 ft 476 kts 221°
2026-05-05 01:57 8.34566 -168.71434 33995 ft 475 kts 221°
2026-05-05 01:57 8.29502 -168.75717 33995 ft 475 kts 221°
2026-05-05 01:58 8.24416 -168.80015 33994 ft 475 kts 221°
2026-05-05 01:58 8.19329 -168.84312 33993 ft 476 kts 221°
2026-05-05 01:59 8.14291 -168.88569 33993 ft 476 kts 221°
2026-05-05 01:59 8.09195 -168.92872 33993 ft 476 kts 221°
2026-05-05 02:00 8.04114 -168.97160 33991 ft 476 kts 221°
2026-05-05 02:00 7.99035 -169.01446 33991 ft 476 kts 221°
2026-05-05 02:01 7.93981 -169.05709 33992 ft 478 kts 220°
2026-05-05 02:01 7.88873 -169.10017 33987 ft 478 kts 220°
2026-05-05 02:02 7.83785 -169.14305 33986 ft 477 kts 220°
2026-05-05 02:02 7.78678 -169.18609 33986 ft 477 kts 220°
2026-05-05 02:03 7.73583 -169.22901 33985 ft 477 kts 220°
2026-05-05 02:03 7.68473 -169.27204 33985 ft 477 kts 220°
2026-05-05 02:04 7.63407 -169.31469 33985 ft 477 kts 220°
2026-05-05 02:04 7.58310 -169.35758 33984 ft 477 kts 220°
2026-05-05 02:05 7.53202 -169.40055 33984 ft 477 kts 220°
2026-05-05 02:05 7.48103 -169.44344 33983 ft 477 kts 220°
2026-05-05 02:06 7.42995 -169.48639 33983 ft 477 kts 220°
2026-05-05 02:06 7.37924 -169.52901 33982 ft 478 kts 220°
2026-05-05 02:07 7.32814 -169.57195 33982 ft 479 kts 220°
2026-05-05 02:07 7.27691 -169.61499 33982 ft 479 kts 220°
2026-05-05 02:08 7.22574 -169.65796 33982 ft 478 kts 220°
2026-05-05 02:08 7.17467 -169.70084 33981 ft 478 kts 220°
2026-05-05 02:09 7.12350 -169.74383 33980 ft 478 kts 220°
2026-05-05 02:09 7.07266 -169.78648 33980 ft 478 kts 220°
2026-05-05 02:10 7.02152 -169.82937 33980 ft 479 kts 220°
2026-05-05 02:10 6.97011 -169.87247 33979 ft 480 kts 220°
2026-05-05 02:11 6.91887 -169.91542 33979 ft 480 kts 220°
2026-05-05 02:11 6.86831 -169.95861 33979 ft 479 kts 221°
2026-05-05 02:12 6.79205 -170.02403 33979 ft 480 kts 221°
2026-05-05 02:13 6.74096 -170.06782 33978 ft 481 kts 221°
2026-05-05 02:13 6.69029 -170.11123 33977 ft 481 kts 221°
2026-05-05 02:14 6.63926 -170.15496 33977 ft 481 kts 221°
2026-05-05 02:14 6.58824 -170.19872 33977 ft 481 kts 221°
2026-05-05 02:15 6.53721 -170.24244 33976 ft 482 kts 221°
2026-05-05 02:15 6.48644 -170.28593 33976 ft 482 kts 221°
2026-05-05 02:16 6.43529 -170.32971 33976 ft 482 kts 221°
2026-05-05 02:16 6.38417 -170.37346 33976 ft 482 kts 221°
2026-05-05 02:17 6.33307 -170.41718 33975 ft 482 kts 221°
2026-05-05 02:17 6.28216 -170.46072 33975 ft 482 kts 221°
2026-05-05 02:18 6.23096 -170.50450 33975 ft 482 kts 221°
2026-05-05 02:18 6.17987 -170.54816 33974 ft 482 kts 221°
2026-05-05 02:19 6.12868 -170.59191 33974 ft 482 kts 221°
2026-05-05 02:19 6.07786 -170.63533 33973 ft 482 kts 221°
2026-05-05 02:20 6.02674 -170.67900 33973 ft 482 kts 221°
2026-05-05 02:20 5.97560 -170.72266 33973 ft 482 kts 221°
2026-05-05 02:21 5.92445 -170.76633 33973 ft 483 kts 221°
2026-05-05 02:21 5.87349 -170.80982 33972 ft 483 kts 221°
2026-05-05 02:22 5.82225 -170.85354 33972 ft 484 kts 221°
2026-05-05 02:22 5.77097 -170.89729 33971 ft 484 kts 221°
2026-05-05 02:23 5.72799 -170.93394 33972 ft 483 kts 221°
2026-05-05 02:23 5.66836 -170.98479 33971 ft 483 kts 221°
2026-05-05 02:24 5.61707 -171.02851 33971 ft 483 kts 221°
2026-05-05 02:24 5.57443 -171.06485 33970 ft 484 kts 221°
2026-05-05 02:25 5.52299 -171.10868 33970 ft 485 kts 221°
2026-05-05 02:25 5.47156 -171.15249 33970 ft 485 kts 221°
2026-05-05 02:26 5.42021 -171.19623 33970 ft 484 kts 221°
2026-05-05 02:26 5.36905 -171.23978 33969 ft 484 kts 221°
2026-05-05 02:27 5.31765 -171.28353 33969 ft 484 kts 221°
2026-05-05 02:27 5.26616 -171.32736 33969 ft 484 kts 221°
2026-05-05 02:28 5.21474 -171.37111 33968 ft 484 kts 221°
2026-05-05 02:28 5.16351 -171.41470 33974 ft 484 kts 221°
2026-05-05 02:29 5.11215 -171.45838 33974 ft 485 kts 221°
2026-05-05 02:29 5.06050 -171.50230 33974 ft 485 kts 221°
2026-05-05 02:30 5.00896 -171.54612 33974 ft 485 kts 221°
2026-05-05 02:30 4.95775 -171.58964 33974 ft 485 kts 221°
2026-05-05 02:31 4.90617 -171.63347 33974 ft 485 kts 221°
2026-05-05 02:31 4.85458 -171.67730 33973 ft 485 kts 221°
2026-05-05 02:32 4.80302 -171.72111 33973 ft 485 kts 221°
2026-05-05 02:32 4.75143 -171.76492 33973 ft 486 kts 221°
2026-05-05 02:33 4.69983 -171.80873 33972 ft 486 kts 221°
2026-05-05 02:33 4.64816 -171.85260 33972 ft 486 kts 221°
2026-05-05 02:34 4.59690 -171.89610 33972 ft 486 kts 221°
2026-05-05 02:34 4.54522 -171.93995 33968 ft 486 kts 221°
2026-05-05 02:35 4.49348 -171.98385 33971 ft 486 kts 221°
2026-05-05 02:35 4.44204 -172.02749 33971 ft 487 kts 221°
2026-05-05 02:36 4.39023 -172.07142 33971 ft 488 kts 221°
2026-05-05 02:36 4.33836 -172.11541 33971 ft 488 kts 221°
2026-05-05 02:37 4.28651 -172.15937 33970 ft 487 kts 221°
2026-05-05 02:37 4.23508 -172.20296 33970 ft 487 kts 221°
2026-05-05 02:38 4.18330 -172.24684 33972 ft 487 kts 221°
2026-05-05 02:38 4.13141 -172.29081 33969 ft 487 kts 221°
2026-05-05 02:39 4.07964 -172.33467 33969 ft 487 kts 221°
2026-05-05 02:39 4.02785 -172.37854 33969 ft 487 kts 221°
2026-05-05 02:40 3.97600 -172.42245 33968 ft 487 kts 221°
2026-05-05 02:40 3.92447 -172.46609 33968 ft 487 kts 221°
2026-05-05 02:41 3.87261 -172.50999 33968 ft 487 kts 221°
2026-05-05 02:41 3.82084 -172.55381 33968 ft 487 kts 221°
2026-05-05 02:42 3.76906 -172.59766 33968 ft 487 kts 221°
2026-05-05 02:42 3.71759 -172.64123 33967 ft 487 kts 221°
2026-05-05 02:43 3.66566 -172.68516 33967 ft 487 kts 221°
2026-05-05 02:43 3.61385 -172.72898 33967 ft 487 kts 221°
2026-05-05 02:44 3.56237 -172.77251 33966 ft 486 kts 221°
2026-05-05 02:44 3.51174 -172.81729 33966 ft 486 kts 224°
2026-05-05 02:45 3.46255 -172.86375 33966 ft 485 kts 224°
2026-05-05 02:45 3.41327 -172.90998 33965 ft 486 kts 224°
2026-05-05 02:46 3.36379 -172.95618 33965 ft 486 kts 224°
2026-05-05 02:46 3.31437 -173.00223 33965 ft 485 kts 223°
2026-05-05 02:47 3.26520 -173.04805 33965 ft 485 kts 223°
2026-05-05 02:47 3.21572 -173.09413 33964 ft 485 kts 223°
2026-05-05 02:48 3.16623 -173.14019 33964 ft 485 kts 223°
2026-05-05 02:48 3.11673 -173.18626 33964 ft 485 kts 223°
2026-05-05 02:49 3.06745 -173.23210 33964 ft 485 kts 223°
2026-05-05 02:49 3.01792 -173.27818 33973 ft 486 kts 223°
2026-05-05 02:50 2.96861 -173.32404 33973 ft 486 kts 223°
2026-05-05 02:50 2.91901 -173.37017 33972 ft 486 kts 223°
2026-05-05 02:51 2.86945 -173.41625 33972 ft 486 kts 223°
2026-05-05 02:51 2.81985 -173.46236 33972 ft 486 kts 223°
2026-05-05 02:52 2.77058 -173.50817 33971 ft 486 kts 223°
2026-05-05 02:52 2.72102 -173.55423 33970 ft 486 kts 223°
2026-05-05 02:53 2.67143 -173.60032 33969 ft 486 kts 223°
2026-05-05 02:53 2.62185 -173.64640 33969 ft 487 kts 223°
2026-05-05 02:54 2.57212 -173.69261 33968 ft 487 kts 223°
2026-05-05 02:54 2.52275 -173.73847 33967 ft 487 kts 223°
2026-05-05 02:55 2.47297 -173.78472 33967 ft 487 kts 223°
2026-05-05 02:55 2.42336 -173.83080 33966 ft 487 kts 223°
2026-05-05 02:56 2.37406 -173.87659 33965 ft 487 kts 223°
2026-05-05 02:56 2.32433 -173.92278 33965 ft 488 kts 223°
2026-05-05 02:57 2.27457 -173.96897 33965 ft 488 kts 223°
2026-05-05 02:57 2.22473 -174.01525 33964 ft 488 kts 223°
2026-05-05 02:58 2.17532 -174.06113 33963 ft 487 kts 223°
2026-05-05 02:58 2.12561 -174.10728 33962 ft 487 kts 223°
2026-05-05 02:59 2.07575 -174.15355 33961 ft 487 kts 223°
2026-05-05 02:59 2.02605 -174.19969 33928 ft 488 kts 223°
2026-05-05 03:00 1.97667 -174.24552 33902 ft 488 kts 223°
2026-05-05 03:00 1.92688 -174.29172 33899 ft 488 kts 223°
2026-05-05 03:01 1.87712 -174.33789 33899 ft 488 kts 223°
2026-05-05 03:01 1.82730 -174.38412 33898 ft 488 kts 223°
2026-05-05 03:02 1.77781 -174.43004 33898 ft 487 kts 223°
2026-05-05 03:02 1.72812 -174.47614 33898 ft 487 kts 223°
2026-05-05 03:03 1.67850 -174.52217 33897 ft 487 kts 223°
2026-05-05 03:03 1.62875 -174.56831 33897 ft 487 kts 223°
2026-05-05 03:04 1.57940 -174.61408 33897 ft 487 kts 223°
2026-05-05 03:04 1.52976 -174.66012 33895 ft 486 kts 223°
2026-05-05 03:05 1.48023 -174.70605 33897 ft 486 kts 223°
2026-05-05 03:05 1.43059 -174.75208 33897 ft 486 kts 223°
2026-05-05 03:06 1.38100 -174.79807 33897 ft 486 kts 223°
2026-05-05 03:06 1.33169 -174.84379 33900 ft 483 kts 223°
2026-05-05 03:07 1.28254 -174.88936 33896 ft 480 kts 224°
2026-05-05 03:07 1.23354 -174.93478 33897 ft 480 kts 224°
2026-05-05 03:08 1.18447 -174.98028 33896 ft 481 kts 224°
2026-05-05 03:08 1.13573 -175.02546 33896 ft 481 kts 224°
2026-05-05 03:09 1.08668 -175.07093 33896 ft 481 kts 224°
2026-05-05 03:09 1.03756 -175.11646 33896 ft 480 kts 224°
2026-05-05 03:10 0.98851 -175.16193 33896 ft 480 kts 224°
2026-05-05 03:10 0.93985 -175.20702 33896 ft 480 kts 224°
2026-05-05 03:11 0.89075 -175.25253 33895 ft 480 kts 224°
2026-05-05 03:11 0.84998 -175.29032 33896 ft 481 kts 224°
2026-05-05 03:12 0.80096 -175.33575 33896 ft 481 kts 224°
2026-05-05 03:12 0.75182 -175.38128 33895 ft 481 kts 224°
2026-05-05 03:13 0.70274 -175.42677 33895 ft 481 kts 224°
2026-05-05 03:13 0.65368 -175.47223 33895 ft 481 kts 224°
2026-05-05 03:14 0.60491 -175.51743 33895 ft 481 kts 224°
2026-05-05 03:14 0.55592 -175.56283 33895 ft 481 kts 224°
2026-05-05 03:15 0.50680 -175.60835 33895 ft 481 kts 224°
2026-05-05 03:15 0.45774 -175.65381 33894 ft 481 kts 224°
2026-05-05 03:16 0.40873 -175.69923 33894 ft 480 kts 224°
2026-05-05 03:16 0.36009 -175.74431 33894 ft 479 kts 224°
2026-05-05 03:17 0.31113 -175.78966 33894 ft 480 kts 224°
2026-05-05 03:17 0.26168 -175.83440 33894 ft 480 kts 222°
2026-05-05 03:18 0.21136 -175.87853 33894 ft 480 kts 222°
2026-05-05 03:18 0.16153 -175.92243 33893 ft 480 kts 223°
2026-05-05 03:19 0.08657 -175.98862 33893 ft 480 kts 223°
2026-05-05 03:19 0.03657 -176.03281 33893 ft 480 kts 223°
2026-05-05 03:20 -0.01349 -176.07706 33892 ft 480 kts 223°
2026-05-05 03:20 -0.06319 -176.12100 33892 ft 480 kts 223°
2026-05-05 03:21 -0.11313 -176.16515 33892 ft 480 kts 223°
2026-05-05 03:21 -0.16314 -176.20936 33900 ft 480 kts 223°
2026-05-05 03:22 -0.21321 -176.25363 33900 ft 480 kts 223°
2026-05-05 03:22 -0.26289 -176.29755 33900 ft 480 kts 223°
2026-05-05 03:23 -0.31295 -176.34181 33900 ft 480 kts 223°
2026-05-05 03:23 -0.36287 -176.38594 33899 ft 480 kts 223°
2026-05-05 03:24 -0.41300 -176.43026 33899 ft 479 kts 223°
2026-05-05 03:24 -0.46261 -176.47413 33899 ft 479 kts 223°
2026-05-05 03:25 -0.51269 -176.51840 33899 ft 479 kts 223°
2026-05-05 03:25 -0.56271 -176.56264 33899 ft 479 kts 223°
2026-05-05 03:26 -0.61268 -176.60682 33899 ft 479 kts 223°
2026-05-05 03:26 -0.66258 -176.65094 33898 ft 479 kts 223°
2026-05-05 03:27 -0.71261 -176.69518 33898 ft 479 kts 223°
2026-05-05 03:27 -0.76222 -176.73905 33898 ft 479 kts 223°
2026-05-05 03:28 -0.81233 -176.78336 33898 ft 479 kts 223°
2026-05-05 03:28 -0.86232 -176.82757 33898 ft 479 kts 223°
2026-05-05 03:29 -0.91231 -176.87178 33898 ft 479 kts 223°
2026-05-05 03:29 -0.96188 -176.91562 33897 ft 479 kts 223°
2026-05-05 03:30 -1.01168 -176.95967 33898 ft 478 kts 223°
2026-05-05 03:30 -1.06158 -177.00380 33897 ft 478 kts 223°
2026-05-05 03:31 -1.11141 -177.04788 33897 ft 478 kts 223°
2026-05-05 03:31 -1.16120 -177.09192 33897 ft 478 kts 223°
2026-05-05 03:32 -1.21086 -177.13584 33897 ft 478 kts 223°
2026-05-05 03:32 -1.26070 -177.17994 33977 ft 479 kts 223°
2026-05-05 03:33 -1.28567 -177.20202 34291 ft 479 kts 223°
2026-05-05 03:33 -1.31060 -177.22408 34601 ft 480 kts 223°
2026-05-05 03:33 -1.33574 -177.24633 34876 ft 480 kts 223°
2026-05-05 03:33 -1.36075 -177.26846 35211 ft 479 kts 223°
2026-05-05 03:34 -1.38567 -177.29051 35506 ft 479 kts 223°
2026-05-05 03:34 -1.41031 -177.31230 35789 ft 479 kts 223°
2026-05-05 03:34 -1.46019 -177.35644 35894 ft 479 kts 223°
2026-05-05 03:35 -1.51014 -177.40064 35873 ft 479 kts 223°
2026-05-05 03:35 -1.56007 -177.44483 35870 ft 479 kts 223°
2026-05-05 03:36 -1.60995 -177.48898 35870 ft 479 kts 223°
2026-05-05 03:36 -1.65989 -177.53317 35870 ft 479 kts 223°
2026-05-05 03:37 -1.70948 -177.57707 35870 ft 478 kts 223°
2026-05-05 03:37 -1.75931 -177.62118 35870 ft 478 kts 223°
2026-05-05 03:38 -1.80918 -177.66533 35870 ft 478 kts 223°
2026-05-05 03:38 -1.85865 -177.70913 35870 ft 478 kts 223°
2026-05-05 03:39 -1.90859 -177.75334 35870 ft 478 kts 223°
2026-05-05 03:39 -1.95845 -177.79750 35871 ft 478 kts 223°
2026-05-05 03:40 -2.00827 -177.84161 35871 ft 478 kts 223°
2026-05-05 03:40 -2.05804 -177.88569 35870 ft 478 kts 223°
2026-05-05 03:41 -2.10761 -177.92960 35870 ft 478 kts 223°
2026-05-05 03:41 -2.15747 -177.97377 35871 ft 478 kts 223°
2026-05-05 03:42 -2.20736 -178.01796 35870 ft 478 kts 223°
2026-05-05 03:42 -2.25680 -178.06176 35871 ft 478 kts 223°
2026-05-05 03:43 -2.30660 -178.10589 35871 ft 478 kts 223°
2026-05-05 03:43 -2.35656 -178.15016 35871 ft 478 kts 223°
2026-05-05 03:44 -2.40639 -178.19432 35871 ft 479 kts 223°
2026-05-05 03:44 -2.45628 -178.23854 35871 ft 479 kts 223°
2026-05-05 03:45 -2.50586 -178.28249 35871 ft 479 kts 223°
2026-05-05 03:45 -2.55574 -178.32671 35871 ft 479 kts 223°
2026-05-05 03:46 -2.60578 -178.37108 35871 ft 479 kts 223°
2026-05-05 03:46 -2.65562 -178.41527 35871 ft 479 kts 223°
2026-05-05 03:47 -2.70539 -178.45940 35871 ft 479 kts 223°
2026-05-05 03:47 -2.75497 -178.50338 35871 ft 479 kts 223°
2026-05-05 03:48 -2.80495 -178.54773 35871 ft 479 kts 223°
2026-05-05 03:48 -2.85478 -178.59194 35871 ft 478 kts 223°
2026-05-05 03:49 -2.90532 -178.63525 35871 ft 479 kts 220°
2026-05-05 03:49 -2.95795 -178.67565 35873 ft 480 kts 219°
2026-05-05 03:50 -3.01110 -178.71629 35872 ft 480 kts 219°
2026-05-05 03:50 -3.06410 -178.75713 35872 ft 480 kts 220°
2026-05-05 03:51 -3.11700 -178.79800 35872 ft 480 kts 220°
2026-05-05 03:51 -3.16992 -178.83893 35871 ft 480 kts 220°
2026-05-05 03:52 -3.22249 -178.87958 35872 ft 481 kts 220°
2026-05-05 03:52 -3.27539 -178.92052 35872 ft 481 kts 220°
2026-05-05 03:53 -3.32841 -178.96156 35872 ft 481 kts 220°
2026-05-05 03:53 -3.38137 -179.00256 35872 ft 481 kts 220°
2026-05-05 03:54 -3.43426 -179.04352 35872 ft 481 kts 220°
2026-05-05 03:54 -3.48694 -179.08431 35872 ft 481 kts 220°
2026-05-05 03:55 -3.53995 -179.12537 35872 ft 481 kts 220°
2026-05-05 03:55 -3.59288 -179.16637 35872 ft 481 kts 220°
2026-05-05 03:56 -3.64583 -179.20740 35872 ft 481 kts 220°
2026-05-05 03:56 -3.69884 -179.24848 35872 ft 481 kts 220°
2026-05-05 03:57 -3.75177 -179.28950 35872 ft 481 kts 220°
2026-05-05 03:57 -3.80427 -179.33020 35872 ft 481 kts 220°
2026-05-05 03:58 -3.85722 -179.37125 35872 ft 481 kts 220°
2026-05-05 03:58 -3.91029 -179.41240 35872 ft 481 kts 220°
2026-05-05 03:59 -3.96327 -179.45349 35872 ft 481 kts 220°
2026-05-05 03:59 -4.01635 -179.49466 35871 ft 482 kts 220°
2026-05-05 04:00 -4.06898 -179.53549 35872 ft 481 kts 220°
2026-05-05 04:00 -4.12193 -179.57658 35872 ft 481 kts 220°
2026-05-05 04:01 -4.17489 -179.61768 35873 ft 481 kts 220°
2026-05-05 04:01 -4.22785 -179.65879 35876 ft 480 kts 220°
2026-05-05 04:02 -4.28066 -179.69979 35873 ft 481 kts 220°
2026-05-05 04:02 -4.32470 -179.73399 35870 ft 481 kts 220°
2026-05-05 04:03 -4.37769 -179.77514 35872 ft 481 kts 220°
2026-05-05 04:03 -4.43065 -179.81626 35872 ft 481 kts 220°
2026-05-05 04:04 -4.48326 -179.85713 35872 ft 481 kts 220°
2026-05-05 04:04 -4.53609 -179.89820 35873 ft 481 kts 220°
2026-05-05 04:05 -4.58903 -179.93936 35873 ft 481 kts 220°
2026-05-05 04:05 -4.64185 -179.98042 35873 ft 481 kts 220°
2026-05-05 04:06 -4.69482 179.97840 35843 ft 480 kts 220°
2026-05-05 04:06 -4.74731 179.93767 35785 ft 480 kts 220°
2026-05-05 04:07 -4.80015 179.89663 35783 ft 480 kts 220°
2026-05-05 04:07 -4.85293 179.85561 35786 ft 480 kts 220°
2026-05-05 04:08 -4.90580 179.81451 35789 ft 480 kts 220°
2026-05-05 04:08 -4.95866 179.77344 35788 ft 480 kts 220°
2026-05-05 04:09 -5.01123 179.73261 35788 ft 480 kts 220°
2026-05-05 04:09 -5.06405 179.69155 35788 ft 480 kts 220°
2026-05-05 04:10 -5.11679 179.65053 35788 ft 480 kts 220°
2026-05-05 04:10 -5.16952 179.60952 35788 ft 480 kts 220°
2026-05-05 04:11 -5.22230 179.56845 35788 ft 479 kts 220°
2026-05-05 04:11 -5.27504 179.52741 35806 ft 479 kts 220°
2026-05-05 04:12 -5.32743 179.48663 35813 ft 479 kts 220°
2026-05-05 04:12 -5.38013 179.44559 35812 ft 479 kts 220°
2026-05-05 04:13 -5.43288 179.40452 35813 ft 479 kts 220°
2026-05-05 04:13 -5.48555 179.36349 35813 ft 479 kts 220°
2026-05-05 04:14 -5.53783 179.32276 35814 ft 479 kts 220°
2026-05-05 04:14 -5.59053 179.28169 35814 ft 479 kts 220°
2026-05-05 04:15 -5.64318 179.24065 35814 ft 479 kts 220°
2026-05-05 04:15 -5.69582 179.19961 35813 ft 479 kts 220°
2026-05-05 04:16 -5.74848 179.15854 35812 ft 479 kts 220°
2026-05-05 04:16 -5.80107 179.11752 35813 ft 479 kts 220°
2026-05-05 04:17 -5.85337 179.07672 35813 ft 479 kts 220°
2026-05-05 04:17 -5.90590 179.03572 35813 ft 479 kts 220°
2026-05-05 04:18 -5.95859 178.99459 35813 ft 479 kts 220°
2026-05-05 04:18 -6.01119 178.95352 35814 ft 478 kts 220°
2026-05-05 04:19 -6.06359 178.91259 35813 ft 476 kts 220°
2026-05-05 04:19 -6.11599 178.87166 35814 ft 476 kts 220°
2026-05-05 04:20 -6.16825 178.83082 35814 ft 476 kts 220°
2026-05-05 04:20 -6.22060 178.78991 35813 ft 476 kts 221°
2026-05-05 04:21 -6.27263 178.74923 35814 ft 477 kts 221°
2026-05-05 04:21 -6.32508 178.70821 35814 ft 477 kts 221°
2026-05-05 04:22 -6.37712 178.66751 35814 ft 476 kts 221°
2026-05-05 04:22 -6.42948 178.62654 35814 ft 476 kts 221°
2026-05-05 04:23 -6.48198 178.58545 35814 ft 476 kts 221°
2026-05-05 04:23 -6.53395 178.54476 35814 ft 476 kts 221°
2026-05-05 04:24 -6.58626 178.50381 35814 ft 476 kts 221°
2026-05-05 04:25 -6.66473 178.44234 35814 ft 476 kts 221°
2026-05-05 04:25 -6.71701 178.40137 35814 ft 476 kts 221°
2026-05-05 04:26 -6.76926 178.36041 35815 ft 476 kts 221°
2026-05-05 04:26 -6.82143 178.31951 35815 ft 475 kts 221°
2026-05-05 04:27 -6.87322 178.27889 35815 ft 475 kts 221°
2026-05-05 04:27 -6.92528 178.23805 35815 ft 474 kts 221°
2026-05-05 04:28 -6.97749 178.19707 35815 ft 474 kts 221°
2026-05-05 04:28 -7.02954 178.15626 35815 ft 474 kts 221°
2026-05-05 04:29 -7.08167 178.11532 35815 ft 474 kts 221°
2026-05-05 04:29 -7.13368 178.07446 35815 ft 473 kts 221°
2026-05-05 04:30 -7.18538 178.03381 35815 ft 473 kts 221°
2026-05-05 04:30 -7.23732 177.99300 35815 ft 473 kts 221°
2026-05-05 04:31 -7.29013 177.95317 35815 ft 474 kts 218°
2026-05-05 04:31 -7.34440 177.91529 35815 ft 474 kts 218°
2026-05-05 04:32 -7.39820 177.87744 35815 ft 474 kts 218°
2026-05-05 04:32 -7.45224 177.83917 35815 ft 474 kts 218°
2026-05-05 04:33 -7.50611 177.80090 35815 ft 474 kts 218°
2026-05-05 04:33 -7.56001 177.76260 35815 ft 474 kts 218°
2026-05-05 04:34 -7.61384 177.72435 35815 ft 474 kts 218°
2026-05-05 04:34 -7.66773 177.68601 35815 ft 474 kts 218°
2026-05-05 04:35 -7.72123 177.64792 35815 ft 473 kts 218°
2026-05-05 04:35 -7.77507 177.60957 35815 ft 473 kts 218°
2026-05-05 04:36 -7.82884 177.57126 35815 ft 473 kts 218°
2026-05-05 04:36 -7.88258 177.53296 35815 ft 473 kts 218°
2026-05-05 04:37 -7.93636 177.49462 35815 ft 473 kts 218°
2026-05-05 04:37 -7.98977 177.45652 35816 ft 473 kts 218°
2026-05-05 04:38 -8.04359 177.41812 35815 ft 473 kts 218°
2026-05-05 04:38 -8.09736 177.37975 35815 ft 473 kts 218°
2026-05-05 04:39 -8.15116 177.34134 35815 ft 473 kts 218°
2026-05-05 04:39 -8.20489 177.30297 35816 ft 473 kts 218°
2026-05-05 04:40 -8.25822 177.26486 35815 ft 473 kts 218°
2026-05-05 04:40 -8.31198 177.22645 35815 ft 473 kts 218°
2026-05-05 04:41 -8.36573 177.18802 35815 ft 473 kts 218°
2026-05-05 04:41 -8.41950 177.14957 35815 ft 473 kts 218°
2026-05-05 04:42 -8.47318 177.11116 35815 ft 472 kts 218°
2026-05-05 04:42 -8.52681 177.07279 35815 ft 472 kts 218°
2026-05-05 04:43 -8.58042 177.03440 35816 ft 472 kts 218°
2026-05-05 04:43 -8.63373 176.99623 35815 ft 472 kts 218°
2026-05-05 04:44 -8.68743 176.95775 35814 ft 472 kts 218°
2026-05-05 04:44 -8.74111 176.91928 35815 ft 472 kts 218°
2026-05-05 04:45 -8.79482 176.88078 35815 ft 472 kts 218°
2026-05-05 04:45 -8.84815 176.84253 35815 ft 473 kts 218°
2026-05-05 04:46 -8.90178 176.80406 35815 ft 473 kts 218°
2026-05-05 04:46 -8.95559 176.76544 35815 ft 473 kts 218°
2026-05-05 04:47 -9.00926 176.72690 35815 ft 473 kts 218°
2026-05-05 04:47 -9.06261 176.68858 35815 ft 472 kts 218°
2026-05-05 04:48 -9.11619 176.65008 35815 ft 472 kts 218°
2026-05-05 04:48 -9.16084 176.61799 35815 ft 472 kts 218°
2026-05-05 04:49 -9.21438 176.57950 35815 ft 472 kts 218°
2026-05-05 04:49 -9.26802 176.54091 35815 ft 472 kts 218°
2026-05-05 04:50 -9.32155 176.50240 35815 ft 472 kts 218°
2026-05-05 04:50 -9.37513 176.46383 35815 ft 472 kts 218°
2026-05-05 04:51 -9.42868 176.42527 35814 ft 472 kts 218°
2026-05-05 04:51 -9.48214 176.38676 35815 ft 472 kts 218°
2026-05-05 04:52 -9.53540 176.34837 35816 ft 472 kts 218°
2026-05-05 04:52 -9.58898 176.30975 35815 ft 472 kts 218°
2026-05-05 04:53 -9.64257 176.27110 35815 ft 472 kts 218°
2026-05-05 04:53 -9.69601 176.23253 35815 ft 471 kts 218°
2026-05-05 04:54 -9.74948 176.19395 35815 ft 471 kts 218°
2026-05-05 04:54 -9.80255 176.15562 35815 ft 471 kts 218°
2026-05-05 04:55 -9.85604 176.11698 35815 ft 471 kts 218°
2026-05-05 04:55 -9.90936 176.07845 35815 ft 471 kts 218°
2026-05-05 04:56 -9.96293 176.03971 35815 ft 471 kts 218°
2026-05-05 04:56 -10.01633 176.00110 35815 ft 471 kts 218°
2026-05-05 04:57 -10.06950 175.96262 35815 ft 471 kts 218°
2026-05-05 04:57 -10.12290 175.92396 35815 ft 471 kts 218°
2026-05-05 04:58 -10.17637 175.88524 35815 ft 471 kts 218°
2026-05-05 04:58 -10.22940 175.84683 35815 ft 471 kts 218°
2026-05-05 04:59 -10.28273 175.80817 35815 ft 471 kts 218°
2026-05-05 04:59 -10.33615 175.76944 35815 ft 471 kts 218°
2026-05-05 05:00 -10.38942 175.73080 35815 ft 470 kts 218°
2026-05-05 05:00 -10.44277 175.69208 35815 ft 470 kts 218°
2026-05-05 05:01 -10.49601 175.65342 35815 ft 470 kts 218°
2026-05-05 05:01 -10.54889 175.61502 35815 ft 470 kts 218°
2026-05-05 05:02 -10.60217 175.57630 35815 ft 470 kts 218°
2026-05-05 05:02 -10.65536 175.53763 35815 ft 470 kts 218°
2026-05-05 05:03 -10.70853 175.49897 35815 ft 469 kts 218°
2026-05-05 05:03 -10.76135 175.46053 35815 ft 469 kts 218°
2026-05-05 05:04 -10.81446 175.42187 35815 ft 469 kts 218°
2026-05-05 05:04 -10.86758 175.38319 35815 ft 469 kts 218°
2026-05-05 05:05 -10.92027 175.34480 35815 ft 469 kts 218°
2026-05-05 05:05 -10.97334 175.30612 35815 ft 468 kts 218°
2026-05-05 05:06 -11.02622 175.26755 35815 ft 467 kts 218°
2026-05-05 05:06 -11.07919 175.22892 35815 ft 467 kts 218°
2026-05-05 05:07 -11.13174 175.19056 35815 ft 467 kts 218°
2026-05-05 05:07 -11.18458 175.15197 35815 ft 467 kts 218°
2026-05-05 05:08 -11.23741 175.11337 35815 ft 467 kts 218°
2026-05-05 05:08 -11.29024 175.07476 35816 ft 467 kts 218°
2026-05-05 05:09 -11.34312 175.03609 35815 ft 467 kts 218°
2026-05-05 05:09 -11.39594 174.99745 35815 ft 467 kts 218°
2026-05-05 05:10 -11.44874 174.95881 35815 ft 467 kts 218°
2026-05-05 05:10 -11.50122 174.92037 35816 ft 467 kts 218°
2026-05-05 05:11 -11.55395 174.88175 35815 ft 467 kts 218°
2026-05-05 05:11 -11.60671 174.84308 35815 ft 467 kts 218°
2026-05-05 05:12 -11.65943 174.80442 35815 ft 466 kts 218°
2026-05-05 05:12 -11.71210 174.76578 35815 ft 466 kts 218°
2026-05-05 05:13 -11.76480 174.72710 35815 ft 466 kts 218°
2026-05-05 05:13 -11.81756 174.68835 35815 ft 466 kts 218°
2026-05-05 05:14 -11.87022 174.64966 35815 ft 466 kts 218°
2026-05-05 05:14 -11.92257 174.61118 35815 ft 466 kts 218°
2026-05-05 05:15 -11.97530 174.57239 35816 ft 466 kts 218°
2026-05-05 05:15 -12.02786 174.53372 35815 ft 465 kts 218°
2026-05-05 05:16 -12.08048 174.49499 35815 ft 464 kts 218°
2026-05-05 05:16 -12.13300 174.45631 35815 ft 464 kts 218°
2026-05-05 05:17 -12.18504 174.41796 35815 ft 465 kts 218°
2026-05-05 05:17 -12.23747 174.37930 35815 ft 465 kts 218°
2026-05-05 05:18 -12.29003 174.34053 35815 ft 465 kts 218°
2026-05-05 05:18 -12.34247 174.30183 35815 ft 465 kts 218°
2026-05-05 05:19 -12.39457 174.26335 35815 ft 465 kts 218°
2026-05-05 05:19 -12.44711 174.22460 35815 ft 465 kts 218°
2026-05-05 05:20 -12.49960 174.18582 35815 ft 465 kts 218°
2026-05-05 05:20 -12.55203 174.14702 35822 ft 464 kts 218°
2026-05-05 05:21 -12.60438 174.10825 35824 ft 464 kts 218°
2026-05-05 05:21 -12.65642 174.06971 35824 ft 464 kts 218°
2026-05-05 05:22 -12.70935 174.03167 35824 ft 465 kts 216°
2026-05-05 05:22 -12.76390 173.99604 35825 ft 465 kts 214°
2026-05-05 05:23 -12.81854 173.96036 35825 ft 465 kts 215°
2026-05-05 05:23 -12.87287 173.92464 35825 ft 464 kts 215°
2026-05-05 05:24 -12.92688 173.88900 35825 ft 464 kts 215°
2026-05-05 05:24 -12.98120 173.85314 35826 ft 464 kts 215°
2026-05-05 05:25 -13.03553 173.81732 35826 ft 463 kts 215°
2026-05-05 05:25 -13.08966 173.78157 35827 ft 463 kts 215°
2026-05-05 05:26 -13.14382 173.74575 35827 ft 463 kts 215°
2026-05-05 05:26 -13.19760 173.71015 35827 ft 463 kts 215°
2026-05-05 05:27 -13.25176 173.67429 35827 ft 462 kts 215°
2026-05-05 05:27 -13.33296 173.62047 35828 ft 463 kts 215°
2026-05-05 05:28 -13.38682 173.58475 35828 ft 462 kts 215°
2026-05-05 05:28 -13.44089 173.54886 35829 ft 462 kts 215°
2026-05-05 05:29 -13.49479 173.51307 35828 ft 461 kts 215°
2026-05-05 05:29 -13.54874 173.47723 35829 ft 461 kts 215°
2026-05-05 05:30 -13.60264 173.44140 35829 ft 461 kts 215°
2026-05-05 05:30 -13.65626 173.40575 35829 ft 461 kts 215°
2026-05-05 05:31 -13.71016 173.36988 35829 ft 461 kts 215°
2026-05-05 05:31 -13.76405 173.33400 35829 ft 461 kts 215°
2026-05-05 05:32 -13.81790 173.29812 35829 ft 461 kts 215°
2026-05-05 05:32 -13.87179 173.26220 35830 ft 461 kts 215°
2026-05-05 05:33 -13.92565 173.22628 35841 ft 461 kts 215°
2026-05-05 05:33 -13.97914 173.19059 35845 ft 462 kts 215°
2026-05-05 05:34 -14.03312 173.15454 35844 ft 460 kts 215°
2026-05-05 05:34 -14.08671 173.11875 35845 ft 458 kts 214°
2026-05-05 05:35 -14.13996 173.08315 35846 ft 458 kts 214°
2026-05-05 05:35 -14.18451 173.05336 35846 ft 458 kts 214°
2026-05-05 05:36 -14.24671 173.01174 35847 ft 458 kts 214°
2026-05-05 05:36 -14.29121 172.98194 35847 ft 458 kts 214°
2026-05-05 05:37 -14.34476 172.94607 35848 ft 458 kts 214°
2026-05-05 05:37 -14.39820 172.91024 35849 ft 458 kts 214°
2026-05-05 05:38 -14.45165 172.87440 35849 ft 458 kts 214°
2026-05-05 05:38 -14.50504 172.83857 35849 ft 457 kts 214°
2026-05-05 05:39 -14.55809 172.80295 35850 ft 457 kts 214°
2026-05-05 05:39 -14.61154 172.76704 35850 ft 457 kts 214°
2026-05-05 05:40 -14.66486 172.73120 35851 ft 457 kts 214°
2026-05-05 05:40 -14.71818 172.69533 35851 ft 457 kts 214°
2026-05-05 05:41 -14.77143 172.65949 35851 ft 457 kts 214°
2026-05-05 05:41 -14.82438 172.62383 35852 ft 457 kts 214°
2026-05-05 05:42 -14.87775 172.58787 35852 ft 457 kts 214°
2026-05-05 05:42 -14.93096 172.55199 35853 ft 456 kts 214°
2026-05-05 05:43 -14.98406 172.51617 35853 ft 455 kts 214°
2026-05-05 05:43 -15.03678 172.48058 35853 ft 454 kts 214°
2026-05-05 05:44 -15.08976 172.44479 35854 ft 454 kts 214°
2026-05-05 05:44 -15.14265 172.40905 35855 ft 453 kts 214°
2026-05-05 05:45 -15.19548 172.37332 35855 ft 453 kts 214°
2026-05-05 05:45 -15.24792 172.33783 35856 ft 453 kts 214°
2026-05-05 05:46 -15.30069 172.30210 35856 ft 452 kts 214°
2026-05-05 05:46 -15.35325 172.26650 35856 ft 451 kts 214°
2026-05-05 05:47 -15.40578 172.23088 35857 ft 451 kts 214°
2026-05-05 05:47 -15.45837 172.19521 35858 ft 450 kts 214°
2026-05-05 05:48 -15.51041 172.15989 35858 ft 450 kts 214°
2026-05-05 05:48 -15.56276 172.12433 35859 ft 449 kts 214°
2026-05-05 05:49 -15.61507 172.08878 35859 ft 449 kts 214°
2026-05-05 05:49 -15.66733 172.05324 35867 ft 448 kts 214°
2026-05-05 05:50 -15.71923 172.01793 35868 ft 449 kts 214°
2026-05-05 05:50 -15.77152 171.98233 35868 ft 448 kts 214°
2026-05-05 05:51 -15.82365 171.94681 35869 ft 448 kts 214°
2026-05-05 05:51 -15.87578 171.91127 35869 ft 448 kts 214°
2026-05-05 05:52 -15.92781 171.87578 35869 ft 448 kts 214°
2026-05-05 05:52 -15.97994 171.84020 35870 ft 448 kts 214°
2026-05-05 05:53 -16.03202 171.80463 35871 ft 448 kts 214°
2026-05-05 05:53 -16.08380 171.76924 35871 ft 448 kts 214°
2026-05-05 05:54 -16.13584 171.73365 35872 ft 447 kts 214°
2026-05-05 05:54 -16.18792 171.69801 35872 ft 446 kts 214°
2026-05-05 05:55 -16.23951 171.66269 35872 ft 446 kts 214°
2026-05-05 05:55 -16.29153 171.62704 35873 ft 446 kts 214°
2026-05-05 05:56 -16.34333 171.59153 35873 ft 446 kts 214°
2026-05-05 05:56 -16.39518 171.55595 35874 ft 445 kts 214°
2026-05-05 05:57 -16.44653 171.52070 35874 ft 445 kts 214°
2026-05-05 05:57 -16.49831 171.48513 35875 ft 445 kts 214°
2026-05-05 05:58 -16.54988 171.44968 35875 ft 444 kts 214°
2026-05-05 05:58 -16.60151 171.41417 35876 ft 444 kts 214°
2026-05-05 05:59 -16.65301 171.37872 35876 ft 444 kts 214°
2026-05-05 05:59 -16.70420 171.34346 35877 ft 443 kts 214°
2026-05-05 06:00 -16.75568 171.30798 35877 ft 442 kts 214°
2026-05-05 06:00 -16.80702 171.27257 35878 ft 442 kts 214°
2026-05-05 06:01 -16.85833 171.23716 35878 ft 441 kts 214°
2026-05-05 06:01 -16.90944 171.20187 35878 ft 440 kts 214°
2026-05-05 06:02 -16.96022 171.16678 35879 ft 440 kts 214°
2026-05-05 06:02 -17.01132 171.13144 35879 ft 440 kts 214°
2026-05-05 06:03 -17.06232 171.09615 35880 ft 439 kts 214°
2026-05-05 06:03 -17.11332 171.06084 35880 ft 439 kts 214°
2026-05-05 06:04 -17.16425 171.02556 35882 ft 439 kts 214°
2026-05-05 06:04 -17.21477 170.99053 35881 ft 438 kts 214°
2026-05-05 06:05 -17.26546 170.95536 35882 ft 438 kts 214°
2026-05-05 06:05 -17.31630 170.92006 35882 ft 438 kts 214°
2026-05-05 06:06 -17.36699 170.88484 35883 ft 437 kts 214°
2026-05-05 06:06 -17.41769 170.84959 35883 ft 438 kts 214°
2026-05-05 06:07 -17.46861 170.81417 35883 ft 439 kts 214°
2026-05-05 06:07 -17.51909 170.77903 35884 ft 438 kts 214°
2026-05-05 06:08 -17.56978 170.74380 35902 ft 438 kts 214°
2026-05-05 06:08 -17.62061 170.70838 35904 ft 438 kts 214°
2026-05-05 06:09 -17.67137 170.67293 35906 ft 437 kts 214°
2026-05-05 06:09 -17.72190 170.63761 35912 ft 436 kts 214°
2026-05-05 06:10 -17.77256 170.60221 35915 ft 436 kts 214°
2026-05-05 06:10 -17.82368 170.56806 35915 ft 436 kts 211°
2026-05-05 06:11 -17.87641 170.53697 35916 ft 437 kts 210°
2026-05-05 06:11 -17.92947 170.50581 35918 ft 436 kts 210°
2026-05-05 06:12 -17.98231 170.47451 35918 ft 435 kts 210°
2026-05-05 06:12 -18.03496 170.44320 35919 ft 434 kts 210°
2026-05-05 06:13 -18.08743 170.41194 35919 ft 433 kts 210°
2026-05-05 06:13 -18.13957 170.38097 35919 ft 433 kts 210°
2026-05-05 06:14 -18.19213 170.34970 35920 ft 433 kts 210°
2026-05-05 06:14 -18.24459 170.31842 35923 ft 433 kts 210°
2026-05-05 06:15 -18.29703 170.28712 35924 ft 433 kts 210°
2026-05-05 06:15 -18.34941 170.25582 35925 ft 433 kts 210°
2026-05-05 06:16 -18.40188 170.22444 35925 ft 433 kts 210°
2026-05-05 06:16 -18.45387 170.19334 35926 ft 433 kts 210°
2026-05-05 06:17 -18.50634 170.16191 35926 ft 433 kts 210°
2026-05-05 06:17 -18.55877 170.13050 35927 ft 433 kts 210°
2026-05-05 06:18 -18.61122 170.09904 35927 ft 433 kts 211°
2026-05-05 06:18 -18.66316 170.06787 35928 ft 432 kts 211°
2026-05-05 06:19 -18.71535 170.03653 35928 ft 432 kts 211°
2026-05-05 06:19 -18.76768 170.00508 35929 ft 432 kts 211°
2026-05-05 06:20 -18.81990 169.97367 35930 ft 432 kts 211°
2026-05-05 06:20 -18.87173 169.94247 35930 ft 432 kts 211°
2026-05-05 06:21 -18.92409 169.91094 35930 ft 432 kts 211°
2026-05-05 06:21 -18.97627 169.87949 35931 ft 431 kts 211°
2026-05-05 06:22 -19.02840 169.84805 35932 ft 431 kts 211°
2026-05-05 06:22 -19.08051 169.81659 35932 ft 431 kts 211°
2026-05-05 06:23 -19.13262 169.78512 35932 ft 431 kts 211°
2026-05-05 06:23 -19.17582 169.75900 35933 ft 430 kts 211°
2026-05-05 06:24 -19.23631 169.72241 35933 ft 430 kts 211°
2026-05-05 06:24 -19.27952 169.69625 35933 ft 430 kts 211°
2026-05-05 06:25 -19.33150 169.66477 35933 ft 429 kts 211°
2026-05-05 06:25 -19.38335 169.63333 35934 ft 429 kts 211°
2026-05-05 06:26 -19.43486 169.60208 35934 ft 429 kts 211°
2026-05-05 06:26 -19.48675 169.57058 35935 ft 429 kts 211°
2026-05-05 06:27 -19.56452 169.52342 35935 ft 428 kts 211°
2026-05-05 06:28 -19.61617 169.49197 35935 ft 428 kts 211°
2026-05-05 06:28 -19.66789 169.46045 35935 ft 428 kts 211°
2026-05-05 06:29 -19.71931 169.42910 35935 ft 428 kts 211°
2026-05-05 06:29 -19.77099 169.39757 35935 ft 428 kts 211°
2026-05-05 06:30 -19.82352 169.36768 35935 ft 429 kts 209°
2026-05-05 06:30 -19.87653 169.33832 35935 ft 429 kts 209°
2026-05-05 06:31 -19.92939 169.30879 35935 ft 429 kts 209°
2026-05-05 06:31 -19.98194 169.27932 35935 ft 429 kts 210°
2026-05-05 06:32 -20.03471 169.24965 35935 ft 427 kts 210°
2026-05-05 06:32 -20.08716 169.22019 35935 ft 426 kts 210°
2026-05-05 06:33 -20.13975 169.19070 35935 ft 427 kts 210°
2026-05-05 06:33 -20.19222 169.16119 35934 ft 427 kts 210°
2026-05-05 06:34 -20.24435 169.13183 35935 ft 426 kts 210°
2026-05-05 06:34 -20.29672 169.10230 35935 ft 426 kts 210°
2026-05-05 06:35 -20.34911 169.07273 35935 ft 426 kts 210°
2026-05-05 06:35 -20.40159 169.04309 35935 ft 426 kts 210°
2026-05-05 06:36 -20.45402 169.01345 35935 ft 426 kts 210°
2026-05-05 06:36 -20.50610 168.98398 36238 ft 428 kts 210°
2026-05-05 06:36 -20.53237 168.96911 36573 ft 428 kts 210°
2026-05-05 06:37 -20.55874 168.95417 36905 ft 426 kts 210°
2026-05-05 06:37 -20.58491 168.93935 37317 ft 424 kts 210°
2026-05-05 06:37 -20.61089 168.92462 37634 ft 423 kts 210°
2026-05-05 06:37 -20.63686 168.90990 37870 ft 423 kts 210°
2026-05-05 06:38 -20.66299 168.89508 37923 ft 423 kts 210°
2026-05-05 06:38 -20.71466 168.86575 37937 ft 422 kts 210°
2026-05-05 06:39 -20.76641 168.83635 37937 ft 421 kts 210°
2026-05-05 06:39 -20.81808 168.80698 37937 ft 421 kts 210°
2026-05-05 06:40 -20.86986 168.77753 37938 ft 420 kts 210°
2026-05-05 06:40 -20.92145 168.74816 37938 ft 420 kts 210°
2026-05-05 06:41 -20.97298 168.71879 37939 ft 420 kts 210°
2026-05-05 06:41 -21.02429 168.68953 37939 ft 420 kts 210°
2026-05-05 06:42 -21.07584 168.66011 37940 ft 420 kts 210°
2026-05-05 06:42 -21.12738 168.63068 37941 ft 419 kts 210°
2026-05-05 06:43 -21.17878 168.60130 37941 ft 419 kts 210°
2026-05-05 06:43 -21.23023 168.57187 37942 ft 418 kts 211°
2026-05-05 06:44 -21.28124 168.54266 37942 ft 418 kts 211°
2026-05-05 06:44 -21.33251 168.51329 37943 ft 417 kts 211°
2026-05-05 06:45 -21.38377 168.48390 37944 ft 417 kts 211°
2026-05-05 06:45 -21.43484 168.45459 37945 ft 416 kts 211°
2026-05-05 06:46 -21.48568 168.42539 37945 ft 416 kts 211°
2026-05-05 06:46 -21.53673 168.39604 37947 ft 416 kts 211°
2026-05-05 06:47 -21.58781 168.36666 37946 ft 416 kts 211°
2026-05-05 06:47 -21.63882 168.33729 37947 ft 415 kts 211°
2026-05-05 06:48 -21.68978 168.30793 37948 ft 415 kts 211°
2026-05-05 06:48 -21.74031 168.27879 37949 ft 414 kts 211°
2026-05-05 06:49 -21.79114 168.24946 37950 ft 414 kts 211°
2026-05-05 06:49 -21.84206 168.22004 37951 ft 415 kts 211°
2026-05-05 06:50 -21.89257 168.19085 37951 ft 414 kts 211°
2026-05-05 06:50 -21.94336 168.16146 37952 ft 413 kts 211°
2026-05-05 06:51 -21.99403 168.13213 37952 ft 413 kts 211°
2026-05-05 06:51 -22.04478 168.10271 37958 ft 413 kts 211°
2026-05-05 06:52 -22.09517 168.07349 37968 ft 413 kts 211°
2026-05-05 06:52 -22.14592 168.04404 37969 ft 413 kts 211°
2026-05-05 06:53 -22.19659 168.01469 37969 ft 413 kts 211°
2026-05-05 06:53 -22.24730 167.98523 37969 ft 413 kts 211°
2026-05-05 06:54 -22.29797 167.95571 37970 ft 413 kts 211°
2026-05-05 06:54 -22.34857 167.92620 37971 ft 413 kts 211°
2026-05-05 06:55 -22.39886 167.89686 37968 ft 413 kts 211°
2026-05-05 06:55 -22.44942 167.86735 37968 ft 413 kts 211°
2026-05-05 06:56 -22.49978 167.83735 37969 ft 412 kts 212°
2026-05-05 06:56 -22.54999 167.80728 37969 ft 412 kts 212°
2026-05-05 06:57 -22.59997 167.77732 37970 ft 413 kts 212°
2026-05-05 06:57 -22.65014 167.74722 37970 ft 412 kts 212°
2026-05-05 06:58 -22.70027 167.71712 37970 ft 412 kts 212°
2026-05-05 06:58 -22.75037 167.68702 37970 ft 412 kts 212°
2026-05-05 06:59 -22.80062 167.65699 37971 ft 412 kts 212°
2026-05-05 06:59 -22.85074 167.62696 37972 ft 411 kts 212°
2026-05-05 07:00 -22.90052 167.59706 37972 ft 411 kts 212°
2026-05-05 07:00 -22.95055 167.56697 37972 ft 411 kts 212°
2026-05-05 07:01 -23.00054 167.53687 37973 ft 411 kts 213°
2026-05-05 07:01 -23.05053 167.50673 37974 ft 411 kts 213°
2026-05-05 07:02 -23.10025 167.47674 37974 ft 411 kts 213°
2026-05-05 07:02 -23.15023 167.44656 37974 ft 410 kts 213°
2026-05-05 07:03 -23.20006 167.41644 37975 ft 410 kts 213°
2026-05-05 07:03 -23.24988 167.38631 37975 ft 410 kts 213°
2026-05-05 07:04 -23.29983 167.35607 37976 ft 410 kts 213°
2026-05-05 07:04 -23.34969 167.32586 37977 ft 410 kts 213°
2026-05-05 07:05 -23.39927 167.29579 37977 ft 410 kts 213°
2026-05-05 07:05 -23.44901 167.26560 37978 ft 408 kts 213°
2026-05-05 07:06 -23.49865 167.23544 37979 ft 408 kts 213°
2026-05-05 07:06 -23.54840 167.20519 37980 ft 409 kts 213°
2026-05-05 07:07 -23.59815 167.17492 37981 ft 409 kts 213°
2026-05-05 07:07 -23.64756 167.14482 37982 ft 409 kts 213°
2026-05-05 07:08 -23.69727 167.11452 37982 ft 409 kts 213°
2026-05-05 07:08 -23.74711 167.08410 37985 ft 409 kts 213°
2026-05-05 07:09 -23.79678 167.05377 37984 ft 408 kts 213°
2026-05-05 07:09 -23.84606 167.02365 37986 ft 408 kts 213°
2026-05-05 07:10 -23.89560 166.99334 37987 ft 408 kts 213°
2026-05-05 07:10 -23.94520 166.96297 37988 ft 409 kts 213°
2026-05-05 07:11 -23.99489 166.93252 37989 ft 409 kts 213°
2026-05-05 07:11 -24.04449 166.90210 37991 ft 408 kts 214°
2026-05-05 07:12 -24.09360 166.87194 37993 ft 406 kts 214°
2026-05-05 07:12 -24.14294 166.84162 37994 ft 406 kts 214°
2026-05-05 07:13 -24.19227 166.81128 37996 ft 406 kts 214°
2026-05-05 07:13 -24.24166 166.78087 37997 ft 406 kts 214°
2026-05-05 07:14 -24.29068 166.75067 37999 ft 407 kts 214°
2026-05-05 07:14 -24.34007 166.72021 38000 ft 407 kts 214°
2026-05-05 07:15 -24.38940 166.68976 38002 ft 407 kts 214°
2026-05-05 07:15 -24.43051 166.66436 38003 ft 407 kts 214°
2026-05-05 07:16 -24.47989 166.63383 38003 ft 407 kts 214°
2026-05-05 07:16 -24.52923 166.60329 38007 ft 407 kts 214°
2026-05-05 07:17 -24.57828 166.57291 38009 ft 407 kts 214°
2026-05-05 07:17 -24.62773 166.54225 38011 ft 407 kts 214°
2026-05-05 07:18 -24.67704 166.51165 38013 ft 407 kts 214°
2026-05-05 07:18 -24.72635 166.48103 38015 ft 406 kts 214°
2026-05-05 07:19 -24.77536 166.45055 38017 ft 406 kts 214°
2026-05-05 07:19 -24.82457 166.41993 38019 ft 406 kts 214°
2026-05-05 07:20 -24.87381 166.38926 38021 ft 406 kts 214°
2026-05-05 07:20 -24.92302 166.35858 38023 ft 406 kts 214°
2026-05-05 07:21 -24.97228 166.32785 38025 ft 406 kts 214°
2026-05-05 07:21 -25.02153 166.29709 38027 ft 407 kts 214°
2026-05-05 07:22 -25.07049 166.26648 38030 ft 407 kts 214°
2026-05-05 07:22 -25.11971 166.23568 38032 ft 406 kts 214°
2026-05-05 07:23 -25.16899 166.20482 38044 ft 406 kts 215°
2026-05-05 07:23 -25.21812 166.17402 38053 ft 406 kts 215°
2026-05-05 07:24 -25.26729 166.14316 38056 ft 406 kts 215°
2026-05-05 07:24 -25.31642 166.11230 38058 ft 406 kts 215°
2026-05-05 07:25 -25.36554 166.08142 38061 ft 406 kts 215°
2026-05-05 07:25 -25.41434 166.05071 38063 ft 406 kts 215°
2026-05-05 07:26 -25.46340 166.01981 38065 ft 406 kts 215°
2026-05-05 07:26 -25.51253 165.98884 38067 ft 407 kts 215°
2026-05-05 07:27 -25.56178 165.95776 38070 ft 407 kts 215°
2026-05-05 07:27 -25.61102 165.92666 38073 ft 406 kts 215°
2026-05-05 07:28 -25.66009 165.89563 38075 ft 406 kts 215°
2026-05-05 07:28 -25.70916 165.86457 38078 ft 406 kts 215°
2026-05-05 07:29 -25.75786 165.83372 38080 ft 406 kts 215°
2026-05-05 07:29 -25.80697 165.80258 38082 ft 406 kts 215°
2026-05-05 07:30 -25.85607 165.77142 38084 ft 406 kts 215°
2026-05-05 07:30 -25.92966 165.72465 38088 ft 406 kts 215°
2026-05-05 07:31 -25.97836 165.69367 38090 ft 406 kts 215°
2026-05-05 07:31 -26.02744 165.66242 38093 ft 406 kts 215°
2026-05-05 07:32 -26.07647 165.63116 38094 ft 405 kts 216°
2026-05-05 07:32 -26.12556 165.59983 38095 ft 406 kts 216°
2026-05-05 07:33 -26.17459 165.56851 38098 ft 407 kts 216°
2026-05-05 07:33 -26.22365 165.53715 38100 ft 406 kts 216°
2026-05-05 07:34 -26.27241 165.50595 38103 ft 406 kts 216°
2026-05-05 07:34 -26.32136 165.47459 38104 ft 405 kts 216°
2026-05-05 07:35 -26.37039 165.44315 38106 ft 406 kts 216°
2026-05-05 07:35 -26.41941 165.41168 38108 ft 406 kts 216°
2026-05-05 07:36 -26.46817 165.38036 38109 ft 406 kts 216°
2026-05-05 07:36 -26.51715 165.34885 38118 ft 406 kts 216°
2026-05-05 07:37 -26.56613 165.31732 38122 ft 406 kts 216°
2026-05-05 07:37 -26.61522 165.28569 38123 ft 407 kts 216°
2026-05-05 07:38 -26.66432 165.25401 38124 ft 407 kts 216°
2026-05-05 07:38 -26.71293 165.22262 38126 ft 406 kts 216°
2026-05-05 07:39 -26.76190 165.19097 38128 ft 406 kts 216°
2026-05-05 07:39 -26.81079 165.15934 38128 ft 406 kts 216°
2026-05-05 07:40 -26.85976 165.12762 38129 ft 407 kts 216°
2026-05-05 07:40 -26.90881 165.09582 38130 ft 407 kts 216°
2026-05-05 07:41 -26.95778 165.06404 38131 ft 406 kts 216°
2026-05-05 07:41 -27.00673 165.03224 38133 ft 406 kts 216°
2026-05-05 07:42 -27.05545 165.00056 38134 ft 407 kts 217°
2026-05-05 07:42 -27.10442 164.96868 38135 ft 407 kts 217°
2026-05-05 07:43 -27.15344 164.93674 38136 ft 406 kts 217°
2026-05-05 07:43 -27.20238 164.90481 38137 ft 407 kts 217°
2026-05-05 07:44 -27.25140 164.87280 38138 ft 407 kts 217°
2026-05-05 07:44 -27.30037 164.84079 38139 ft 408 kts 217°
2026-05-05 07:45 -27.34927 164.80886 38139 ft 408 kts 217°
2026-05-05 07:45 -27.39848 164.77672 38140 ft 408 kts 217°
2026-05-05 07:46 -27.44756 164.74451 38143 ft 408 kts 217°
2026-05-05 07:46 -27.49671 164.71220 38141 ft 409 kts 217°
2026-05-05 07:47 -27.54585 164.67986 38142 ft 409 kts 217°
2026-05-05 07:47 -27.59501 164.64751 38142 ft 409 kts 217°
2026-05-05 07:48 -27.64143 164.61194 38143 ft 405 kts 223°
2026-05-05 07:48 -27.68507 164.57198 38143 ft 403 kts 225°
2026-05-05 07:49 -27.72829 164.53172 38143 ft 402 kts 225°
2026-05-05 07:49 -27.77146 164.49180 38143 ft 402 kts 225°
2026-05-05 07:50 -27.81490 164.45174 38143 ft 403 kts 225°
2026-05-05 07:50 -27.85840 164.41165 38143 ft 403 kts 225°
2026-05-05 07:51 -27.90171 164.37190 38143 ft 403 kts 225°
2026-05-05 07:51 -27.94531 164.33199 38143 ft 403 kts 225°
2026-05-05 07:52 -27.98890 164.29194 38143 ft 404 kts 225°
2026-05-05 07:52 -28.03249 164.25180 38143 ft 404 kts 225°
2026-05-05 07:53 -28.07609 164.21159 38143 ft 404 kts 225°
2026-05-05 07:53 -28.11958 164.17142 38143 ft 404 kts 225°
2026-05-05 07:54 -28.16318 164.13110 38143 ft 404 kts 225°
2026-05-05 07:54 -28.20670 164.09082 38143 ft 404 kts 225°
2026-05-05 07:55 -28.24993 164.05075 38142 ft 404 kts 225°
2026-05-05 07:55 -28.29347 164.01036 38142 ft 404 kts 225°
2026-05-05 07:56 -28.33697 163.96995 38142 ft 404 kts 225°
2026-05-05 07:56 -28.38046 163.92952 38143 ft 404 kts 225°
2026-05-05 07:57 -28.42371 163.88926 38142 ft 404 kts 225°
2026-05-05 07:57 -28.46714 163.84879 38141 ft 403 kts 225°
2026-05-05 07:58 -28.51051 163.80833 38141 ft 403 kts 225°
2026-05-05 07:58 -28.55394 163.76777 38141 ft 403 kts 225°
2026-05-05 07:59 -28.59713 163.72740 38146 ft 404 kts 226°
2026-05-05 07:59 -28.64056 163.68675 38146 ft 403 kts 226°
2026-05-05 08:00 -28.67654 163.65303 38146 ft 403 kts 226°
2026-05-05 08:00 -28.72685 163.60585 38145 ft 403 kts 226°
2026-05-05 08:01 -28.77014 163.56519 38145 ft 404 kts 226°
2026-05-05 08:01 -28.80622 163.53128 38145 ft 404 kts 226°
2026-05-05 08:02 -28.84962 163.49045 38145 ft 403 kts 226°
2026-05-05 08:02 -28.89291 163.44966 38145 ft 403 kts 226°
2026-05-05 08:03 -28.93625 163.40879 38144 ft 404 kts 226°
2026-05-05 08:03 -28.97926 163.36819 38144 ft 403 kts 226°
2026-05-05 08:04 -29.02255 163.32726 38144 ft 403 kts 226°
2026-05-05 08:04 -29.06574 163.28639 38144 ft 403 kts 226°
2026-05-05 08:05 -29.10893 163.24548 38146 ft 403 kts 226°
2026-05-05 08:05 -29.15226 163.20461 38194 ft 403 kts 226°
2026-05-05 08:06 -29.19538 163.16369 38195 ft 402 kts 226°
2026-05-05 08:06 -29.23836 163.12276 38195 ft 402 kts 226°
2026-05-05 08:07 -29.28134 163.08177 38195 ft 402 kts 226°
2026-05-05 08:07 -29.32410 163.04097 38194 ft 403 kts 227°
2026-05-05 08:08 -29.36713 162.99989 38194 ft 403 kts 227°
2026-05-05 08:08 -29.41001 162.95835 38194 ft 402 kts 227°
2026-05-05 08:09 -29.45275 162.91678 38194 ft 402 kts 227°
2026-05-05 08:09 -29.49551 162.87513 38194 ft 403 kts 227°
2026-05-05 08:10 -29.53800 162.83369 38193 ft 403 kts 227°
2026-05-05 08:10 -29.58080 162.79191 38193 ft 403 kts 227°
2026-05-05 08:11 -29.62360 162.75008 38193 ft 404 kts 227°
2026-05-05 08:11 -29.66668 162.70829 38192 ft 404 kts 227°
2026-05-05 08:12 -29.70928 162.66678 38192 ft 405 kts 227°
2026-05-05 08:12 -29.75223 162.62479 38191 ft 404 kts 228°
2026-05-05 08:13 -29.79509 162.58282 38191 ft 404 kts 228°
2026-05-05 08:13 -29.83795 162.54078 38191 ft 405 kts 228°
2026-05-05 08:14 -29.88088 162.49862 38191 ft 405 kts 228°
2026-05-05 08:14 -29.92358 162.45689 38190 ft 405 kts 228°
2026-05-05 08:15 -29.96651 162.41464 38190 ft 406 kts 228°
2026-05-05 08:15 -30.00945 162.37224 38190 ft 405 kts 228°
2026-05-05 08:16 -30.05231 162.32986 38189 ft 404 kts 228°
2026-05-05 08:16 -30.09481 162.28781 38189 ft 405 kts 229°
2026-05-05 08:17 -30.13647 162.24409 38190 ft 401 kts 234°
2026-05-05 08:17 -30.17235 162.19506 38188 ft 397 kts 238°
2026-05-05 08:18 -30.20611 162.14507 38187 ft 395 kts 238°
2026-05-05 08:18 -30.24008 162.09501 38187 ft 395 kts 238°
2026-05-05 08:19 -30.27415 162.04503 38186 ft 396 kts 238°
2026-05-05 08:19 -30.30830 161.99502 38186 ft 396 kts 238°
2026-05-05 08:20 -30.34245 161.94500 38186 ft 396 kts 238°
2026-05-05 08:20 -30.37664 161.89547 38185 ft 396 kts 238°
2026-05-05 08:21 -30.41101 161.84553 38185 ft 396 kts 238°
2026-05-05 08:21 -30.44532 161.79547 38184 ft 396 kts 238°
2026-05-05 08:22 -30.47949 161.74547 38183 ft 395 kts 238°
2026-05-05 08:22 -30.51370 161.69534 38183 ft 395 kts 238°
2026-05-05 08:23 -30.54756 161.64563 38182 ft 395 kts 238°
2026-05-05 08:23 -30.58172 161.59543 38182 ft 395 kts 238°
2026-05-05 08:24 -30.61580 161.54527 38184 ft 396 kts 238°
2026-05-05 08:24 -30.64988 161.49504 38184 ft 396 kts 238°
2026-05-05 08:25 -30.68370 161.44514 38183 ft 395 kts 238°
2026-05-05 08:25 -30.71769 161.39491 38196 ft 395 kts 238°
2026-05-05 08:26 -30.75173 161.34455 38197 ft 395 kts 238°
2026-05-05 08:26 -30.78567 161.29427 38198 ft 396 kts 239°
2026-05-05 08:27 -30.81959 161.24397 38196 ft 395 kts 239°
2026-05-05 08:27 -30.85352 161.19358 38196 ft 396 kts 239°
2026-05-05 08:28 -30.88728 161.14337 38196 ft 396 kts 239°
2026-05-05 08:28 -30.92119 161.09288 38195 ft 396 kts 239°
2026-05-05 08:29 -30.95505 161.04240 38195 ft 395 kts 239°
2026-05-05 08:30 -31.00579 160.96663 38195 ft 395 kts 239°
2026-05-05 08:30 -31.03941 160.91635 38194 ft 396 kts 239°
2026-05-05 08:31 -31.07324 160.86568 38193 ft 396 kts 239°
2026-05-05 08:31 -31.10710 160.81490 38193 ft 395 kts 239°
2026-05-05 08:32 -31.14087 160.76420 38192 ft 395 kts 239°
2026-05-05 08:32 -31.17462 160.71346 38192 ft 395 kts 239°
2026-05-05 08:33 -31.20815 160.66298 38191 ft 395 kts 239°
2026-05-05 08:33 -31.24174 160.61235 38191 ft 394 kts 239°
2026-05-05 08:34 -31.27537 160.56159 38190 ft 394 kts 239°
2026-05-05 08:34 -31.30893 160.51087 38190 ft 394 kts 240°
2026-05-05 08:35 -31.34237 160.46027 38189 ft 395 kts 240°
2026-05-05 08:35 -31.37595 160.40939 38190 ft 395 kts 240°
2026-05-05 08:36 -31.40954 160.35842 38188 ft 394 kts 240°
2026-05-05 08:36 -31.44279 160.30791 38188 ft 394 kts 240°
2026-05-05 08:37 -31.47624 160.25703 38187 ft 394 kts 240°
2026-05-05 08:37 -31.50971 160.20603 38187 ft 394 kts 240°
2026-05-05 08:38 -31.54289 160.15543 38186 ft 394 kts 240°
2026-05-05 08:38 -31.57628 160.10444 38186 ft 393 kts 240°
2026-05-05 08:39 -31.60964 160.05343 38185 ft 393 kts 240°
2026-05-05 08:39 -31.64282 160.00262 38185 ft 392 kts 240°
2026-05-05 08:40 -31.67583 159.95200 38184 ft 392 kts 240°
2026-05-05 08:40 -31.70900 159.90107 38184 ft 392 kts 240°
2026-05-05 08:41 -31.74215 159.85011 38183 ft 392 kts 240°
2026-05-05 08:41 -31.77533 159.79902 38184 ft 392 kts 240°
2026-05-05 08:42 -31.80819 159.74837 38209 ft 392 kts 240°
2026-05-05 08:42 -31.84130 159.69727 38209 ft 392 kts 240°
2026-05-05 08:43 -31.87443 159.64607 38199 ft 393 kts 240°
2026-05-05 08:43 -31.90749 159.59491 38195 ft 393 kts 240°
2026-05-05 08:44 -31.94065 159.54351 38195 ft 393 kts 240°
2026-05-05 08:44 -31.97379 159.49209 38195 ft 394 kts 240°
2026-05-05 08:45 -32.00687 159.44067 38194 ft 394 kts 240°
2026-05-05 08:45 -32.03983 159.38940 38194 ft 395 kts 240°
2026-05-05 08:46 -32.07304 159.33764 38194 ft 396 kts 240°
2026-05-05 08:46 -32.10628 159.28579 38192 ft 396 kts 240°
2026-05-05 08:47 -32.13945 159.23396 38193 ft 397 kts 241°
2026-05-05 08:47 -32.17273 159.18190 38193 ft 398 kts 241°
2026-05-05 08:48 -32.20606 159.12968 38192 ft 397 kts 241°
2026-05-05 08:48 -32.23918 159.07771 38192 ft 399 kts 241°
2026-05-05 08:49 -32.27256 159.02529 38192 ft 399 kts 241°
2026-05-05 08:49 -32.30592 158.97280 38192 ft 399 kts 241°
2026-05-05 08:50 -32.33385 158.92880 38192 ft 400 kts 241°
2026-05-05 08:50 -32.36706 158.87642 38191 ft 400 kts 241°
2026-05-05 08:51 -32.40050 158.82361 38191 ft 400 kts 241°
2026-05-05 08:51 -32.43383 158.77090 38189 ft 400 kts 241°
2026-05-05 08:52 -32.46700 158.71836 38191 ft 402 kts 241°
2026-05-05 08:52 -32.50070 158.66534 38190 ft 402 kts 241°
2026-05-05 08:53 -32.53419 158.61218 38190 ft 402 kts 241°
2026-05-05 08:53 -32.56753 158.55902 38190 ft 402 kts 242°
2026-05-05 08:54 -32.60084 158.50581 38189 ft 401 kts 242°
2026-05-05 08:54 -32.63396 158.45286 38189 ft 402 kts 242°
2026-05-05 08:55 -32.66613 158.39885 38192 ft 398 kts 247°
2026-05-05 08:55 -32.69106 158.34049 38188 ft 393 kts 252°
2026-05-05 08:56 -32.71315 158.28134 38188 ft 391 kts 252°
2026-05-05 08:56 -32.73527 158.22221 38188 ft 391 kts 252°
2026-05-05 08:57 -32.75752 158.16314 38188 ft 392 kts 252°
2026-05-05 08:57 -32.77978 158.10418 38187 ft 393 kts 252°
2026-05-05 08:58 -32.80210 158.04506 38187 ft 392 kts 252°
2026-05-05 08:58 -32.82480 157.98588 38185 ft 393 kts 252°
2026-05-05 08:59 -32.84751 157.92660 38187 ft 394 kts 252°
2026-05-05 08:59 -32.87000 157.86747 38186 ft 395 kts 252°
2026-05-05 09:00 -32.89258 157.80786 38186 ft 396 kts 252°
2026-05-05 09:00 -32.91518 157.74801 38185 ft 396 kts 252°
2026-05-05 09:01 -32.93773 157.68818 38185 ft 396 kts 252°
2026-05-05 09:01 -32.96026 157.62826 38187 ft 396 kts 252°
2026-05-05 09:02 -32.98263 157.56866 38186 ft 396 kts 252°
2026-05-05 09:02 -33.00514 157.50857 38186 ft 396 kts 252°
2026-05-05 09:03 -33.02760 157.44853 38186 ft 397 kts 252°
2026-05-05 09:03 -33.05009 157.38829 38185 ft 398 kts 252°
2026-05-05 09:04 -33.07260 157.32788 38185 ft 398 kts 252°
2026-05-05 09:04 -33.09492 157.26786 38185 ft 398 kts 252°
2026-05-05 09:05 -33.11740 157.20734 38184 ft 399 kts 252°
2026-05-05 09:05 -33.13986 157.14674 38184 ft 398 kts 252°
2026-05-05 09:06 -33.16227 157.08615 38184 ft 399 kts 252°
2026-05-05 09:06 -33.18454 157.02586 38184 ft 400 kts 253°
2026-05-05 09:07 -33.20698 156.96497 38184 ft 400 kts 253°
2026-05-05 09:07 -33.22943 156.90396 38183 ft 401 kts 253°
2026-05-05 09:08 -33.25186 156.84288 38183 ft 401 kts 253°
2026-05-05 09:08 -33.27412 156.78217 38183 ft 402 kts 253°
2026-05-05 09:09 -33.29651 156.72096 38183 ft 402 kts 253°
2026-05-05 09:09 -33.31889 156.65970 38182 ft 402 kts 253°
2026-05-05 09:10 -33.34132 156.59816 38182 ft 403 kts 253°
2026-05-05 09:10 -33.36361 156.53691 38183 ft 404 kts 253°
2026-05-05 09:11 -33.38599 156.47529 38182 ft 405 kts 253°
2026-05-05 09:11 -33.40847 156.41327 38182 ft 406 kts 253°
2026-05-05 09:12 -33.43096 156.35111 38182 ft 407 kts 253°
2026-05-05 09:12 -33.45334 156.28915 38181 ft 407 kts 253°
2026-05-05 09:13 -33.47582 156.22678 38181 ft 408 kts 253°
2026-05-05 09:13 -33.49833 156.16420 38180 ft 409 kts 253°
2026-05-05 09:14 -33.52083 156.10155 38180 ft 409 kts 253°
2026-05-05 09:14 -33.54331 156.03882 38180 ft 409 kts 253°
2026-05-05 09:15 -33.56565 155.97636 38179 ft 410 kts 253°
2026-05-05 09:15 -33.58818 155.91326 38179 ft 412 kts 253°
2026-05-05 09:16 -33.61071 155.85002 38179 ft 412 kts 253°
2026-05-05 09:16 -33.63324 155.78666 38179 ft 412 kts 253°
2026-05-05 09:17 -33.65569 155.72341 38178 ft 412 kts 253°
2026-05-05 09:17 -33.67798 155.66048 38178 ft 412 kts 253°
2026-05-05 09:18 -33.70039 155.59710 38178 ft 411 kts 253°
2026-05-05 09:18 -33.72280 155.53377 38177 ft 411 kts 253°
2026-05-05 09:19 -33.74522 155.47081 38178 ft 411 kts 253°
2026-05-05 09:19 -33.76733 155.40779 38177 ft 411 kts 253°
2026-05-05 09:20 -33.78944 155.34448 38177 ft 411 kts 253°
2026-05-05 09:20 -33.81157 155.28099 38177 ft 412 kts 253°
2026-05-05 09:21 -33.83377 155.21728 38177 ft 412 kts 253°
2026-05-05 09:21 -33.84811 155.15191 38177 ft 405 kts 265°
2026-05-05 09:22 -33.85459 155.08492 38176 ft 401 kts 269°
2026-05-05 09:22 -33.85969 155.01793 38175 ft 401 kts 268°
2026-05-05 09:23 -33.86517 154.95090 38176 ft 403 kts 268°
2026-05-05 09:23 -33.87084 154.88415 38176 ft 404 kts 268°
2026-05-05 09:24 -33.87703 154.81677 38175 ft 405 kts 268°
2026-05-05 09:24 -33.88277 154.74920 38175 ft 406 kts 268°
2026-05-05 09:25 -33.88837 154.68150 38175 ft 406 kts 268°
2026-05-05 09:25 -33.89390 154.61406 38175 ft 408 kts 268°
2026-05-05 09:26 -33.89950 154.54576 38175 ft 409 kts 268°
2026-05-05 09:26 -33.90527 154.47754 38177 ft 410 kts 268°
2026-05-05 09:27 -33.91212 154.40956 38175 ft 408 kts 268°
2026-05-05 09:27 -33.91879 154.34223 38174 ft 408 kts 268°
2026-05-05 09:28 -33.92541 154.27427 38174 ft 409 kts 268°
2026-05-05 09:28 -33.93199 154.20612 38174 ft 409 kts 268°
2026-05-05 09:29 -33.93852 154.13794 38174 ft 410 kts 268°
2026-05-05 09:29 -33.94520 154.06965 38174 ft 410 kts 268°
2026-05-05 09:30 -33.95210 154.00143 38174 ft 410 kts 268°
2026-05-05 09:30 -33.95875 153.93347 38174 ft 410 kts 268°
2026-05-05 09:31 -33.96532 153.86522 38174 ft 410 kts 268°
2026-05-05 09:31 -33.97183 153.79685 38174 ft 410 kts 268°
2026-05-05 09:32 -33.97826 153.72869 38174 ft 410 kts 269°
2026-05-05 09:32 -33.98463 153.66081 38185 ft 410 kts 269°
2026-05-05 09:33 -33.99101 153.59238 38185 ft 409 kts 269°
2026-05-05 09:33 -33.99413 153.55878 38181 ft 397 kts 269°
2026-05-05 09:33 -33.99713 153.52631 38176 ft 382 kts 269°
2026-05-05 09:33 -34.00000 153.49516 38166 ft 366 kts 269°
2026-05-05 09:34 -34.00275 153.46525 38155 ft 351 kts 269°
2026-05-05 09:34 -34.00814 153.40640 38160 ft 363 kts 269°
2026-05-05 09:34 -34.01095 153.37565 38019 ft 376 kts 269°
2026-05-05 09:35 -34.01386 153.34367 37751 ft 389 kts 269°
2026-05-05 09:35 -34.01977 153.27842 36844 ft 389 kts 269°
2026-05-05 09:35 -34.02267 153.24616 36390 ft 384 kts 269°
2026-05-05 09:36 -34.02554 153.21429 35933 ft 380 kts 269°
2026-05-05 09:36 -34.02836 153.18285 35460 ft 375 kts 269°
2026-05-05 09:36 -34.03114 153.15169 34976 ft 372 kts 269°
2026-05-05 09:36 -34.03390 153.12074 34499 ft 368 kts 269°
2026-05-05 09:37 -34.03657 153.09068 34035 ft 364 kts 270°
2026-05-05 09:37 -34.03925 153.06044 33564 ft 361 kts 270°
2026-05-05 09:37 -34.04191 153.03038 33090 ft 357 kts 270°
2026-05-05 09:37 -34.04452 153.00070 32611 ft 355 kts 270°
2026-05-05 09:38 -34.04624 152.98122 32293 ft 353 kts 270°
2026-05-05 09:38 -34.04884 152.95184 31812 ft 351 kts 269°
2026-05-05 09:38 -34.05157 152.92270 31331 ft 348 kts 269°
2026-05-05 09:38 -34.05419 152.89374 30850 ft 346 kts 269°
2026-05-05 09:39 -34.05671 152.86498 30366 ft 344 kts 269°
2026-05-05 09:39 -34.05916 152.83666 29896 ft 342 kts 269°
2026-05-05 09:39 -34.06159 152.80824 29421 ft 340 kts 269°
2026-05-05 09:39 -34.06399 152.77992 28936 ft 338 kts 269°
2026-05-05 09:40 -34.06637 152.75179 28462 ft 336 kts 269°
2026-05-05 09:40 -34.06872 152.72387 27996 ft 334 kts 269°
2026-05-05 09:40 -34.07106 152.69612 27533 ft 331 kts 268°
2026-05-05 09:40 -34.07338 152.66847 27057 ft 329 kts 268°
2026-05-05 09:41 -34.07568 152.64111 26582 ft 328 kts 268°
2026-05-05 09:41 -34.07798 152.61384 26112 ft 326 kts 268°
2026-05-05 09:41 -34.08026 152.58668 25643 ft 324 kts 268°
2026-05-05 09:41 -34.08111 152.56006 25202 ft 319 kts 274°
2026-05-05 09:42 -34.07984 152.53342 24731 ft 317 kts 277°
2026-05-05 09:42 -34.07752 152.50708 24269 ft 315 kts 278°
2026-05-05 09:42 -34.07474 152.48085 23813 ft 313 kts 278°
2026-05-05 09:42 -34.07203 152.45479 23363 ft 312 kts 278°
2026-05-05 09:43 -34.06961 152.42883 22925 ft 310 kts 277°
2026-05-05 09:43 -34.06722 152.40297 22461 ft 309 kts 277°
2026-05-05 09:43 -34.06483 152.37738 22034 ft 307 kts 277°
2026-05-05 09:43 -34.06241 152.35186 21599 ft 305 kts 277°
2026-05-05 09:44 -34.06003 152.32689 21177 ft 303 kts 277°
2026-05-05 09:44 -34.05761 152.30157 20745 ft 302 kts 277°
2026-05-05 09:44 -34.05520 152.27645 20308 ft 300 kts 277°
2026-05-05 09:44 -34.05280 152.25149 19885 ft 299 kts 277°
2026-05-05 09:45 -34.05040 152.22663 19454 ft 298 kts 277°
2026-05-05 09:45 -34.04802 152.20193 19033 ft 296 kts 276°
2026-05-05 09:45 -34.04558 152.17667 18625 ft 313 kts 276°
2026-05-05 09:45 -34.04301 152.15000 18146 ft 325 kts 276°
2026-05-05 09:46 -34.04039 152.12292 17701 ft 325 kts 276°
2026-05-05 09:46 -34.03778 152.09586 17255 ft 324 kts 276°
2026-05-05 09:46 -34.03522 152.06926 16822 ft 322 kts 276°
2026-05-05 09:46 -34.03264 152.04252 16390 ft 320 kts 276°
2026-05-05 09:47 -34.03000 152.01592 15959 ft 319 kts 276°
2026-05-05 09:47 -34.02732 151.98939 15527 ft 317 kts 276°
2026-05-05 09:47 -34.02464 151.96312 15105 ft 315 kts 276°
2026-05-05 09:47 -34.02196 151.93708 14687 ft 313 kts 276°
2026-05-05 09:48 -34.01928 151.91108 14269 ft 311 kts 276°
2026-05-05 09:48 -34.01659 151.88515 13857 ft 309 kts 276°
2026-05-05 09:48 -34.01394 151.85952 13452 ft 307 kts 276°
2026-05-05 09:48 -34.01131 151.83411 13052 ft 305 kts 276°
2026-05-05 09:49 -34.00869 151.80878 12647 ft 303 kts 276°
2026-05-05 09:49 -34.00613 151.78407 12247 ft 301 kts 276°
2026-05-05 09:49 -34.00361 151.75906 11835 ft 299 kts 275°
2026-05-05 09:49 -34.00109 151.73417 11423 ft 298 kts 275°
2026-05-05 09:50 -33.99856 151.70951 11018 ft 296 kts 276°
2026-05-05 09:50 -33.99600 151.68483 10613 ft 295 kts 276°
2026-05-05 09:50 -33.99346 151.66040 10300 ft 290 kts 275°
2026-05-05 09:50 -33.99114 151.63820 10166 ft 281 kts 275°
2026-05-05 09:51 -33.98864 151.61421 9765 ft 280 kts 276°
2026-05-05 09:51 -33.98615 151.59029 9127 ft 288 kts 276°
2026-05-05 09:51 -33.98367 151.56628 8710 ft 288 kts 275°
2026-05-05 09:51 -33.98128 151.54277 8623 ft 275 kts 275°
2026-05-05 09:52 -33.97895 151.52032 8472 ft 266 kts 275°
2026-05-05 09:52 -33.97668 151.49871 8261 ft 261 kts 275°
2026-05-05 09:52 -33.97440 151.47697 8052 ft 262 kts 275°
2026-05-05 09:52 -33.97209 151.45514 7845 ft 261 kts 275°
2026-05-05 09:53 -33.96982 151.43362 7620 ft 260 kts 275°
2026-05-05 09:53 -33.96514 151.41290 7202 ft 263 kts 296°
2026-05-05 09:53 -33.95312 151.39602 6870 ft 264 kts 313°
2026-05-05 09:53 -33.93988 151.38090 6522 ft 263 kts 313°
2026-05-05 09:54 -33.92665 151.36559 6149 ft 262 kts 313°
2026-05-05 09:54 -33.91353 151.35041 5834 ft 260 kts 313°
2026-05-05 09:54 -33.90082 151.33566 5651 ft 247 kts 313°
2026-05-05 09:54 -33.88860 151.32147 5221 ft 243 kts 313°
2026-05-05 09:55 -33.87671 151.30752 4724 ft 241 kts 313°
2026-05-05 09:55 -33.86487 151.29344 4222 ft 238 kts 313°
2026-05-05 09:55 -33.85325 151.27945 3723 ft 234 kts 313°
2026-05-05 09:55 -33.84209 151.26585 3419 ft 222 kts 313°
2026-05-05 09:56 -33.82976 151.25529 3160 ft 218 kts 335°
2026-05-05 09:56 -33.81522 151.25054 3020 ft 215 kts 345°
2026-05-05 09:56 -33.80066 151.24671 3012 ft 214 kts 347°
2026-05-05 09:56 -33.78601 151.24295 2994 ft 218 kts 348°
2026-05-05 09:57 -33.77128 151.23876 2993 ft 217 kts 340°
2026-05-05 09:57 -33.75967 151.22843 2984 ft 202 kts 307°
2026-05-05 09:57 -33.75452 151.21610 2992 ft 197 kts 292°
2026-05-05 09:57 -33.75123 151.20033 2986 ft 194 kts 278°
2026-05-05 09:58 -33.74984 151.18435 2992 ft 191 kts 275°
2026-05-05 09:58 -33.74875 151.16853 3004 ft 190 kts 273°
2026-05-05 09:58 -33.74821 151.15265 2995 ft 191 kts 263°
2026-05-05 09:58 -33.75418 151.13924 2985 ft 185 kts 219°
2026-05-05 09:59 -33.76618 151.13393 3005 ft 187 kts 191°
2026-05-05 09:59 -33.77912 151.13385 2999 ft 186 kts 179°
2026-05-05 09:59 -33.79199 151.13579 2760 ft 185 kts 172°
2026-05-05 09:59 -33.80446 151.13889 2511 ft 182 kts 168°
2026-05-05 10:00 -33.81670 151.14227 2268 ft 181 kts 168°
2026-05-05 10:00 -33.82854 151.14544 2058 ft 169 kts 168°
2026-05-05 10:00 -33.83959 151.14833 1848 ft 152 kts 168°
2026-05-05 10:00 -33.84972 151.15097 1627 ft 146 kts 168°
2026-05-05 10:01 -33.85938 151.15347 1440 ft 144 kts 168°
2026-05-05 10:01 -33.86921 151.15602 1248 ft 144 kts 168°
2026-05-05 10:01 -33.87903 151.15856 1047 ft 144 kts 168°
2026-05-05 10:01 -33.88878 151.16108 855 ft 143 kts 168°
2026-05-05 10:02 -33.89851 151.16361 664 ft 143 kts 168°
2026-05-05 10:02 -33.90821 151.16612 472 ft 143 kts 168°
2026-05-05 10:02 -33.91787 151.16863 286 ft 142 kts 168°
2026-05-05 10:02 -33.92762 151.17111 101 ft 141 kts 168°
2026-05-05 10:03 -33.93688 151.17346 36 ft 125 kts 168°
2026-05-05 10:03 -33.94354 151.17522 35 ft 72 kts 167°
2026-05-05 10:03 -33.94659 151.17602 34 ft 21 kts 167°
2026-05-05 10:03 -33.94740 151.17571 34 ft 10 kts 254°
2026-05-05 10:04 -33.94744 151.17489 34 ft 10 kts 291°
2026-05-05 10:04 -33.94712 151.17428 34 ft 9 kts 321°
2026-05-05 10:04 -33.94636 151.17400 34 ft 21 kts 348°
2026-05-05 10:04 -33.94468 151.17355 34 ft 24 kts 348°
2026-05-05 10:05 -33.94311 151.17314 34 ft 22 kts 347°
2026-05-05 10:05 -33.94162 151.17274 34 ft 21 kts 347°
2026-05-05 10:05 -33.94018 151.17242 34 ft 21 kts 350°
2026-05-05 10:05 -33.93881 151.17209 34 ft 20 kts 343°
2026-05-05 10:06 -33.93752 151.17168 34 ft 19 kts 348°
2026-05-05 10:06 -33.93628 151.17136 34 ft 18 kts 348°
2026-05-05 10:06 -33.93523 151.17108 34 ft 13 kts 339°
2026-05-05 10:06 -33.93512 151.17045 34 ft 8 kts 243°
2026-05-05 10:07 -33.93520 151.17014 34 ft 4 kts 253°
2026-05-05 10:07 -33.93541 151.16998 34 ft 8 kts 188°
2026-05-05 10:07 -33.93596 151.17007 34 ft 5 kts 167°
2026-05-05 10:07 -33.93609 151.17011 34 ft 0 kts 167°